SQ9IAB-13 Weather Reports


time (UTC)temp
F
wind
direction
speed
knots
gust
knots
rain 1hr
in
rain 24hr
in
rain mn
in
humidity
%
barometer
mb
20260508013226 54 153 0.0 4.3 0.02 0.28 0.03 96 1002.6
20260508013125 54 145 0.0 4.3 0.02 0.28 0.03 96 1002.6
20260508013026 54 137 0.0 4.3 0.02 0.28 0.03 96 1002.6
20260508012926 54 127 0.0 4.3 0.02 0.28 0.03 96 1002.6
20260508012827 54 121 2.6 4.3 0.02 0.28 0.03 96 1002.7
20260508012725 54 150 1.7 1.7 0.02 0.28 0.03 96 1002.6
20260508012625 54 146 0.0 0.9 0.02 0.28 0.03 96 1002.6
20260508012525 54 181 0.0 0.0 0.02 0.28 0.03 96 1002.5
20260508012425 54 154 0.0 0.0 0.02 0.28 0.03 96 1002.5
20260508012326 54 164 0.0 0.0 0.02 0.28 0.03 96 1002.6
20260508012226 54 164 0.0 0.0 0.02 0.28 0.03 96 1002.7
20260508012126 54 164 0.0 0.0 0.02 0.28 0.03 96 1002.5
20260508012026 54 164 0.0 0.0 0.02 0.28 0.03 96 1002.7
20260508011926 54 164 0.0 0.0 0.02 0.28 0.03 96 1002.7
20260508011825 54 164 0.0 0.0 0.03 0.28 0.03 96 1002.6
20260508011726 54 162 0.0 0.0 0.03 0.28 0.03 96 1002.5
20260508011625 54 157 0.0 0.0 0.03 0.28 0.03 96 1002.5
20260508011526 54 157 0.0 0.0 0.03 0.28 0.03 96 1002.6
20260508011425 54 181 0.0 0.0 0.03 0.28 0.03 96 1002.5
20260508011326 54 0 0.0 0.0 0.03 0.28 0.03 96 1002.5
20260508011226 54 0 0.0 0.0 0.03 0.28 0.03 96 1002.7
20260508011126 54 0 0.0 0.0 0.03 0.28 0.03 96 1002.6
20260508011027 54 0 0.0 0.0 0.03 0.28 0.03 96 1002.8
20260508010925 54 0 0.0 0.0 0.03 0.28 0.03 96 1002.5
20260508010825 54 0 0.0 0.0 0.03 0.28 0.03 96 1002.7
20260508010726 54 0 0.0 0.0 0.03 0.28 0.03 96 1002.6
20260508010627 54 0 0.0 0.0 0.03 0.28 0.03 96 1002.6
20260508010525 54 0 0.0 0.0 0.03 0.28 0.03 96 1002.7
20260508010425 54 99 0.0 0.9 0.03 0.28 0.03 96 1002.8
20260508010325 54 126 0.0 0.9 0.03 0.28 0.03 96 1002.7
20260508010226 54 129 0.0 0.9 0.03 0.28 0.03 96 1002.3
20260508010126 54 130 0.0 0.9 0.03 0.28 0.03 96 1002.7
20260508010025 54 130 0.0 0.9 0.03 0.28 0.03 96 1002.6
20260508005926 54 130 0.0 0.9 0.02 0.27 0.02 96 1002.7
20260508005826 54 130 0.0 0.9 0.02 0.27 0.02 96 1002.6
20260508005726 54 130 0.0 0.9 0.02 0.27 0.02 96 1002.6
20260508005626 54 130 0.0 0.9 0.02 0.27 0.02 96 1002.6
20260508005526 54 131 0.0 1.7 0.02 0.27 0.02 96 1002.8
20260508005426 54 139 0.0 1.7 0.02 0.27 0.02 96 1002.7
20260508005326 54 130 0.0 1.7 0.02 0.27 0.02 96 1002.7
20260508005227 54 124 0.0 1.7 0.02 0.27 0.02 96 1002.6
20260508005125 54 126 0.0 2.6 0.02 0.27 0.02 96 1002.8
20260508005025 54 127 0.0 2.6 0.02 0.27 0.02 96 1002.6
20260508004925 54 128 0.0 2.6 0.02 0.27 0.02 96 1002.8
20260508004825 54 128 0.0 2.6 0.02 0.27 0.02 96 1002.8
20260508004726 54 129 0.0 2.6 0.02 0.27 0.02 96 1002.6
20260508004625 54 130 0.0 2.6 0.02 0.27 0.02 96 1002.6
20260508004525 54 133 0.0 2.6 0.01 0.25 0.01 96 1002.7
20260508004425 54 133 0.0 2.6 0.01 0.25 0.01 96 1002.8
20260508004325 54 135 0.0 2.6 0.01 0.25 0.01 96 1002.8
20260508004225 54 137 0.0 2.6 0.01 0.25 0.01 96 1002.7
20260508004125 54 137 0.9 2.6 0.01 0.25 0.01 96 1002.9
20260508004026 54 138 0.0 0.9 0.01 0.25 0.01 96 1002.9
20260508003925 54 138 0.0 0.9 0.01 0.25 0.01 96 1002.8
20260508003826 54 139 0.0 0.9 0.01 0.25 0.01 96 1002.9
20260508003725 54 139 0.0 0.9 0.01 0.25 0.01 96 1002.8
20260508003626 54 143 0.0 0.9 0.01 0.25 0.01 96 1002.7
20260508003526 54 142 0.0 0.9 0.01 0.25 0.01 96 1002.8
20260508003426 54 143 0.0 0.9 0.01 0.25 0.01 96 1002.9
20260508003325 54 142 0.0 0.9 0.01 0.25 0.01 96 1002.9
20260508003225 54 144 0.0 0.9 0.01 0.25 0.01 96 1002.9
20260508003126 54 150 0.0 0.9 0.01 0.25 0.01 96 1002.8
20260508003026 54 151 0.0 0.0 0.01 0.25 0.01 96 1003.0
20260508002926 54 151 0.0 0.0 0.01 0.25 0.01 96 1002.9
20260508002827 54 151 0.0 0.0 0.01 0.25 0.01 96 1003.0
20260508002726 54 151 0.0 0.0 0.01 0.25 0.01 96 1002.9
20260508002626 54 144 0.0 0.0 0.01 0.25 0.01 96 1002.8
20260508002526 54 144 0.0 0.0 0.01 0.25 0.01 96 1002.9
20260508002425 54 135 0.0 0.0 0.01 0.25 0.01 96 1003.0
20260508002326 54 147 0.0 0.9 0.01 0.25 0.01 96 1003.1
20260508002226 54 186 0.0 0.9 0.01 0.25 0.01 96 1003.0
20260508002125 54 186 0.0 0.9 0.01 0.25 0.01 96 1002.9
20260508002026 54 186 0.0 0.9 0.01 0.25 0.01 96 1002.9
20260508001925 54 179 0.0 1.7 0.00 0.24 0.00 96 1003.0
20260508001825 54 169 0.0 1.7 0.00 0.24 0.00 96 1002.9
20260508001726 54 166 0.0 1.7 0.00 0.24 0.00 96 1003.0
20260508001625 54 167 0.0 1.7 0.00 0.24 0.00 96 1002.9
20260508001525 54 167 0.0 1.7 0.00 0.24 0.00 96 1003.0
20260508001426 54 167 0.0 1.7 0.00 0.24 0.00 96 1003.0
20260508001326 54 166 0.0 1.7 0.00 0.24 0.00 96 1002.9
20260508001225 54 161 0.0 1.7 0.00 0.24 0.00 96 1003.0
20260508001125 54 157 0.0 1.7 0.00 0.24 0.00 96 1002.8
20260508001026 54 156 0.0 1.7 0.00 0.24 0.00 96 1003.0
20260508000925 54 145 0.9 1.7 0.00 0.24 0.00 96 1002.9
20260508000826 54 157 0.0 0.0 0.00 0.24 0.00 96 1003.0
20260508000725 54 172 0.0 0.0 0.00 0.24 0.00 96 1003.0
20260508000625 54 0 0.0 0.0 0.00 0.24 0.00 96 1002.9
20260508000525 54 0 0.0 0.0 0.00 0.24 0.00 96 1003.2
20260508000427 54 0 0.0 0.0 0.00 0.24 0.00 96 1003.1
20260508000327 54 0 0.0 0.0 0.00 0.24 0.00 96 1003.1
20260508000227 54 0 0.0 0.0 0.00 0.24 0.00 96 1003.2
20260508000126 54 0 0.0 0.0 0.00 0.24 0.00 96 1003.1
20260508000025 54 0 0.0 0.0 0.00 0.24 0.00 96 1003.2
20260507235927 54 0 0.0 0.0 0.00 0.24 0.00 96 1003.1
20260507235826 54 0 0.0 0.0 0.00 0.24 0.00 96 1003.2
20260507235726 54 0 0.0 0.0 0.00 0.24 0.00 96 1003.2
20260507235626 54 0 0.0 0.0 0.00 0.24 0.00 96 1003.1
20260507235525 54 0 0.0 0.0 0.00 0.24 0.00 96 1003.2
20260507235426 54 0 0.0 0.0 0.00 0.24 0.00 96 1003.1
20260507235325 54 0 0.0 0.0 0.00 0.24 0.00 96 1003.2
20260507235225 54 0 0.0 0.0 0.00 0.24 0.00 96 1003.0
20260507235126 54 0 0.0 0.0 0.00 0.24 0.00 96 1002.9
20260507235026 54 0 0.0 0.0 0.00 0.24 0.00 96 1002.9
20260507234925 54 0 0.0 0.0 0.00 0.24 0.00 96 1003.1
20260507234826 54 0 0.0 0.0 0.00 0.24 0.00 96 1003.0
20260507234725 54 0 0.0 0.0 0.00 0.24 0.00 96 1002.9
20260507234625 54 0 0.0 0.0 0.00 0.24 0.00 96 1002.9
20260507234525 54 0 0.0 0.0 0.00 0.24 0.00 96 1002.7
20260507234425 54 0 0.0 0.0 0.00 0.24 0.00 96 1002.8
20260507234325 54 0 0.0 0.0 0.00 0.24 0.00 96 1002.6
20260507234225 54 135 0.0 0.0 0.00 0.24 0.00 96 1002.8
20260507234126 54 135 0.0 0.0 0.00 0.24 0.00 96 1002.6
20260507234026 54 135 0.0 0.0 0.00 0.24 0.00 96 1002.6
20260507233925 54 135 0.0 0.0 0.00 0.24 0.00 96 1002.8
20260507233826 54 135 0.0 0.0 0.00 0.24 0.00 96 1002.7
20260507233725 54 135 0.0 0.0 0.00 0.24 0.00 96 1002.8
20260507233625 54 135 0.0 0.0 0.00 0.24 0.00 96 1002.7
20260507233525 54 135 0.0 0.0 0.00 0.24 0.00 96 1002.8
20260507233425 54 135 0.0 0.0 0.00 0.24 0.00 96 1002.8
20260507233326 54 135 0.0 0.0 0.00 0.24 0.00 96 1002.7
20260507233225 54 135 0.0 0.0 0.00 0.24 0.00 96 1002.8
20260507233125 54 0 0.0 0.0 0.00 0.24 0.00 96 1003.0
20260507233025 54 0 0.0 0.0 0.00 0.24 0.00 96 1002.8
20260507232925 54 0 0.0 0.0 0.00 0.24 0.00 96 1002.8
20260507232825 54 0 0.0 0.0 0.00 0.24 0.00 96 1002.6
20260507232726 54 0 0.0 0.0 0.00 0.24 0.00 95 1002.8
20260507232626 54 0 0.0 0.0 0.00 0.24 0.00 95 1002.7
20260507232527 54 0 0.0 0.0 0.00 0.24 0.00 95 1002.8
20260507232425 54 0 0.0 0.0 0.00 0.24 0.00 95 1002.8
20260507232326 54 0 0.0 0.0 0.00 0.24 0.00 95 1002.8
20260507232226 54 0 0.0 0.0 0.00 0.24 0.00 95 1002.8
20260507232127 54 0 0.0 0.0 0.00 0.24 0.00 95 1002.8
20260507232025 54 0 0.0 0.0 0.00 0.24 0.00 95 1002.9
20260507231926 54 0 0.0 0.0 0.00 0.24 0.00 95 1002.9
20260507231826 54 0 0.0 0.0 0.00 0.24 0.00 95 1002.8
20260507231726 54 0 0.0 0.0 0.00 0.24 0.00 95 1002.8
20260507231627 54 0 0.0 0.0 0.00 0.24 0.00 95 1002.8
20260507231527 54 0 0.0 0.0 0.00 0.24 0.00 95 1002.8
20260507231425 54 135 0.0 0.0 0.00 0.24 0.00 95 1002.8
20260507231325 54 135 0.0 0.0 0.00 0.24 0.00 95 1002.9
20260507231226 54 157 0.0 0.0 0.00 0.24 0.00 95 1003.0
20260507231126 54 149 0.0 0.0 0.00 0.24 0.00 95 1002.9
20260507231026 54 149 0.0 0.0 0.00 0.24 0.00 95 1003.0
20260507230926 54 149 0.0 0.0 0.00 0.24 0.00 95 1003.0
20260507230826 54 149 0.0 0.0 0.00 0.24 0.00 95 1003.0
20260507230725 54 157 0.0 0.0 0.00 0.24 0.00 95 1002.9
20260507230626 54 157 0.0 0.0 0.00 0.24 0.00 95 1002.8
20260507230526 54 157 0.0 0.0 0.00 0.24 0.00 95 1002.7
20260507230425 54 161 0.0 0.0 0.00 0.24 0.00 95 1002.8
20260507230325 54 165 0.0 0.0 0.00 0.24 0.00 95 1002.9
20260507230225 54 157 0.0 0.0 0.00 0.24 0.00 95 1002.9
20260507230125 54 181 0.0 0.9 0.00 0.24 0.00 95 1002.7
20260507230026 54 159 0.0 0.9 0.00 0.24 0.00 95 1002.9
20260507225925 54 159 0.0 0.9 0.00 0.24 0.00 95 1002.8
20260507225825 54 162 0.0 0.9 0.00 0.24 0.00 95 1002.8
20260507225726 54 159 0.0 0.9 0.00 0.24 0.00 95 1002.7
20260507225626 54 159 0.0 0.9 0.00 0.24 0.00 95 1002.7
20260507225525 54 159 0.0 0.9 0.00 0.24 0.00 95 1002.7
20260507225425 54 159 0.0 0.9 0.00 0.24 0.00 95 1002.9
20260507225326 54 159 0.0 0.9 0.00 0.24 0.00 95 1002.6
20260507225226 54 159 0.0 0.9 0.00 0.24 0.00 95 1002.8
20260507225125 54 153 0.0 0.9 0.00 0.24 0.00 92 1002.7
20260507225026 54 172 0.0 0.0 0.00 0.24 0.00 92 1003.0
20260507224926 54 174 0.0 0.0 0.00 0.24 0.00 92 1003.0
20260507224826 54 173 0.0 0.0 0.00 0.24 0.00 92 1002.9
20260507224727 54 172 0.0 0.0 0.00 0.24 0.00 92 1003.0
20260507224625 54 181 0.0 0.0 0.00 0.24 0.00 92 1003.0
20260507224525 54 181 0.0 0.0 0.00 0.24 0.00 92 1003.0
20260507224427 55 181 0.0 0.0 0.00 0.24 0.00 92 1002.8
20260507224325 55 181 0.0 0.0 0.00 0.24 0.00 92 1003.0
20260507224225 55 181 0.0 0.0 0.00 0.24 0.00 92 1002.8
20260507224125 55 181 0.0 0.0 0.00 0.24 0.00 91 1002.9
20260507224025 55 181 0.0 0.0 0.00 0.24 0.00 91 1003.0
20260507223925 55 181 0.0 0.0 0.01 0.24 0.00 91 1003.0
20260507223826 55 0 0.0 0.0 0.01 0.24 0.00 91 1002.9
20260507223726 55 0 0.0 0.0 0.01 0.24 0.00 91 1002.9
20260507223626 55 0 0.0 0.0 0.01 0.24 0.00 91 1002.8
20260507223525 55 0 0.0 0.0 0.01 0.24 0.00 91 1002.8
20260507223425 55 0 0.0 0.0 0.01 0.24 0.00 91 1002.7
20260507223325 55 0 0.0 0.0 0.01 0.24 0.00 91 1002.8
20260507223226 55 0 0.0 0.0 0.01 0.24 0.00 91 1002.8
20260507223126 55 0 0.0 0.0 0.01 0.24 0.00 91 1002.8
20260507223025 55 0 0.0 0.0 0.01 0.24 0.00 91 1002.7
20260507222926 55 0 0.0 0.0 0.01 0.24 0.00 91 1002.8
20260507222826 55 0 0.0 0.0 0.01 0.24 0.00 91 1002.8
20260507222726 55 0 0.0 0.0 0.01 0.24 0.00 91 1002.7
20260507222625 55 0 0.0 0.0 0.02 0.24 0.00 91 1002.9
20260507222525 55 0 0.0 0.0 0.02 0.24 0.00 91 1003.0
20260507222425 55 0 0.0 0.0 0.03 0.24 0.00 91 1003.0
20260507222326 55 0 0.0 0.0 0.03 0.24 0.00 91 1002.9
20260507222226 55 0 0.0 0.0 0.03 0.24 0.00 91 1002.8
20260507222126 55 0 0.0 0.0 0.04 0.24 0.00 91 1003.0
20260507222025 55 0 0.0 0.0 0.05 0.24 0.00 91 1002.9
20260507221925 55 0 0.0 0.0 0.05 0.24 0.00 91 1002.9
20260507221825 55 0 0.0 0.0 0.05 0.24 0.00 91 1002.9
20260507221726 55 0 0.0 0.0 0.07 0.24 0.00 91 1002.8
20260507221626 55 0 0.0 0.0 0.08 0.24 0.00 91 1003.0
20260507221526 55 0 0.0 0.0 0.08 0.24 0.00 90 1003.0
20260507221425 55 0 0.0 0.0 0.08 0.24 0.00 90 1003.0
20260507221325 55 0 0.0 0.0 0.08 0.24 0.00 90 1003.0
20260507221226 55 0 0.0 0.0 0.08 0.24 0.00 90 1002.8
20260507221126 55 0 0.0 0.0 0.08 0.24 0.00 90 1003.1
20260507221025 55 0 0.0 0.0 0.08 0.24 0.00 90 1002.9
20260507220926 55 0 0.0 0.0 0.09 0.24 0.00 90 1002.9
20260507220827 55 0 0.0 0.0 0.09 0.24 0.00 90 1003.0
20260507220725 55 0 0.0 0.0 0.09 0.24 0.00 90 1003.0
20260507220625 55 0 0.0 0.0 0.10 0.24 0.00 90 1002.9
20260507220526 55 0 0.0 0.0 0.10 0.24 0.00 90 1002.9
20260507220426 55 0 0.0 0.0 0.10 0.24 0.00 90 1003.1
20260507220325 55 0 0.0 0.0 0.10 0.24 0.00 90 1003.1
20260507220225 55 0 0.0 0.0 0.10 0.24 0.00 90 1002.9
20260507220126 55 0 0.0 0.0 0.10 0.24 0.00 90 1003.1
20260507220025 55 0 0.0 0.0 0.10 0.24 0.00 90 1003.0
20260507215926 55 0 0.0 0.0 0.10 0.24 0.24 90 1003.0
20260507215827 55 0 0.0 0.0 0.10 0.24 0.24 90 1003.0
20260507215726 55 0 0.0 0.0 0.10 0.24 0.24 90 1003.0
20260507215625 55 0 0.0 0.0 0.10 0.24 0.24 90 1003.0
20260507215525 55 0 0.0 0.0 0.10 0.24 0.24 90 1003.0
20260507215427 55 0 0.0 0.0 0.10 0.24 0.24 90 1003.0
20260507215325 55 0 0.0 0.0 0.10 0.24 0.24 90 1003.0
20260507215225 55 0 0.0 0.0 0.10 0.24 0.24 90 1003.0
20260507215126 55 0 0.0 0.0 0.10 0.24 0.24 90 1002.9
20260507215026 55 0 0.0 0.0 0.10 0.24 0.24 90 1003.1
20260507214926 55 0 0.0 0.0 0.10 0.24 0.24 90 1003.0
20260507214826 55 0 0.0 0.0 0.10 0.24 0.24 90 1003.0
20260507214725 55 0 0.0 0.0 0.10 0.24 0.24 90 1003.0
20260507214626 55 0 0.0 0.0 0.10 0.24 0.24 90 1003.0
20260507214526 55 0 0.0 0.0 0.10 0.24 0.24 90 1002.9
20260507214427 55 0 0.0 0.0 0.10 0.24 0.24 90 1002.9
20260507214325 55 0 0.0 0.0 0.10 0.24 0.24 90 1002.9
20260507214226 55 0 0.0 0.0 0.10 0.24 0.24 89 1003.0
20260507214126 55 0 0.0 0.0 0.10 0.24 0.24 89 1003.0
20260507214026 55 0 0.0 0.0 0.09 0.23 0.23 89 1003.1
20260507213925 55 0 0.0 0.0 0.09 0.23 0.23 89 1003.1
20260507213825 55 0 0.0 0.0 0.09 0.23 0.23 89 1002.9
20260507213725 55 0 0.0 0.0 0.09 0.23 0.23 89 1003.0
20260507213626 55 0 0.0 0.0 0.09 0.23 0.23 89 1003.1
20260507213526 55 0 0.0 0.0 0.09 0.23 0.23 89 1002.8
20260507213426 55 0 0.0 0.0 0.09 0.23 0.23 89 1003.0
20260507213326 55 0 0.0 0.0 0.09 0.23 0.23 89 1002.8
20260507213226 55 0 0.0 0.0 0.09 0.23 0.23 89 1002.9
20260507213126 55 0 0.0 0.0 0.09 0.23 0.23 89 1002.9
20260507213025 55 0 0.0 0.0 0.09 0.23 0.23 89 1002.9
20260507212927 55 0 0.0 0.0 0.10 0.23 0.23 89 1002.9
20260507212825 55 0 0.0 0.0 0.10 0.23 0.23 89 1002.9
20260507212726 55 0 0.0 0.0 0.10 0.23 0.23 89 1003.0
20260507212625 55 0 0.0 0.0 0.09 0.22 0.22 89 1003.0
20260507212525 55 0 0.0 0.0 0.10 0.22 0.22 89 1003.0
20260507212427 55 0 0.0 0.0 0.09 0.21 0.21 89 1002.9
20260507212325 55 0 0.0 0.0 0.09 0.21 0.21 89 1003.0
20260507212226 55 0 0.0 0.0 0.09 0.20 0.20 89 1003.1
20260507212126 55 0 0.0 0.0 0.08 0.18 0.18 89 1003.0
20260507212026 56 0 0.0 0.0 0.08 0.18 0.18 89 1002.9
20260507211925 56 0 0.0 0.0 0.08 0.18 0.18 88 1003.0
20260507211827 56 0 0.0 0.0 0.07 0.17 0.17 88 1002.9
20260507211725 56 0 0.0 0.0 0.05 0.16 0.16 88 1002.9
20260507211625 56 0 0.0 0.0 0.05 0.16 0.16 88 1003.0
20260507211526 56 0 0.0 0.0 0.05 0.16 0.16 88 1003.0
20260507211426 56 0 0.0 0.0 0.05 0.16 0.16 88 1003.0
20260507211325 56 0 0.0 0.0 0.05 0.16 0.16 88 1003.1
20260507211226 56 0 0.0 0.0 0.05 0.16 0.16 88 1003.1
20260507211127 56 0 0.0 0.0 0.05 0.16 0.16 88 1003.0
20260507211025 56 0 0.0 0.0 0.04 0.15 0.15 88 1003.0
20260507210926 56 0 0.0 0.0 0.04 0.15 0.15 88 1003.0
20260507210826 56 0 0.0 0.0 0.04 0.15 0.15 88 1002.9
20260507210725 56 0 0.0 0.0 0.04 0.15 0.15 88 1002.9
20260507210625 56 0 0.0 0.0 0.03 0.14 0.14 88 1002.8
20260507210526 56 0 0.0 0.0 0.03 0.14 0.14 88 1002.9
20260507210426 56 158 0.0 0.0 0.03 0.14 0.14 88 1002.8
20260507210325 56 158 0.0 0.0 0.03 0.14 0.14 88 1002.8
20260507210225 56 158 0.0 0.0 0.03 0.14 0.14 88 1002.7
20260507210125 56 158 0.0 0.0 0.03 0.14 0.14 88 1002.8
20260507210025 56 158 0.0 0.0 0.03 0.14 0.14 88 1002.7
20260507205926 56 158 0.0 0.0 0.03 0.14 0.14 88 1002.9
20260507205826 56 158 0.0 0.0 0.03 0.14 0.14 88 1002.7
20260507205727 56 173 0.0 0.9 0.03 0.14 0.14 88 1002.7
20260507205625 56 173 0.0 0.9 0.03 0.14 0.14 87 1002.8
20260507205527 56 173 0.0 0.9 0.03 0.14 0.14 87 1002.8
20260507205425 56 181 0.0 0.9 0.03 0.14 0.14 87 1002.9
20260507205325 56 181 0.0 0.9 0.03 0.14 0.14 87 1003.0
20260507205225 56 181 0.0 0.9 0.03 0.14 0.14 87 1002.7
20260507205125 56 181 0.0 0.9 0.03 0.14 0.14 87 1002.7
20260507205025 56 181 0.0 0.9 0.03 0.14 0.14 87 1002.8
20260507204926 56 181 0.0 0.9 0.03 0.14 0.14 87 1002.8
20260507204825 56 181 0.0 0.9 0.03 0.14 0.14 87 1002.8
20260507204725 56 181 0.0 0.9 0.03 0.14 0.14 87 1002.7
20260507204625 56 0 0.0 0.0 0.03 0.14 0.14 87 1002.7
20260507204526 56 0 0.0 0.0 0.03 0.14 0.14 87 1002.7
20260507204426 56 0 0.0 0.0 0.03 0.14 0.14 87 1002.9
20260507204326 56 0 0.0 0.0 0.03 0.14 0.14 87 1002.8
20260507204226 56 0 0.0 0.0 0.03 0.14 0.14 87 1002.8
20260507204127 56 0 0.0 0.0 0.03 0.14 0.14 87 1002.7
20260507204025 56 0 0.0 0.0 0.03 0.14 0.14 87 1002.7
20260507203925 56 0 0.0 0.0 0.03 0.14 0.14 87 1002.6
20260507203825 56 0 0.0 0.0 0.03 0.14 0.14 87 1002.6
20260507203726 56 0 0.0 0.0 0.03 0.14 0.14 87 1002.6
20260507203625 56 181 0.0 0.0 0.03 0.14 0.14 87 1002.5
20260507203526 57 181 0.0 0.0 0.03 0.14 0.14 87 1002.6
20260507203426 57 181 0.0 0.0 0.03 0.14 0.14 87 1002.5
20260507203325 57 181 0.0 0.0 0.03 0.14 0.14 87 1002.5
20260507203226 57 196 0.0 0.9 0.03 0.14 0.14 87 1002.7
20260507203126 57 204 0.0 0.9 0.03 0.14 0.14 87 1002.5
20260507203026 57 197 0.0 0.9 0.02 0.12 0.12 87 1002.6
20260507202926 57 181 0.0 2.6 0.02 0.12 0.12 87 1002.6
20260507202826 57 181 0.0 2.6 0.02 0.12 0.12 87 1002.5
20260507202726 57 182 0.0 2.6 0.02 0.12 0.12 87 1002.7
20260507202625 57 173 0.0 2.6 0.02 0.12 0.12 86 1002.5
20260507202526 57 189 0.0 2.6 0.01 0.11 0.11 86 1002.7
20260507202425 57 200 0.0 2.6 0.01 0.11 0.11 86 1002.5
20260507202326 57 210 0.0 2.6 0.01 0.11 0.11 86 1002.7
20260507202225 57 230 0.0 2.6 0.00 0.10 0.10 86 1002.8
20260507202126 57 254 0.0 2.6 0.00 0.10 0.10 86 1002.7
20260507202026 57 275 0.0 2.6 0.00 0.10 0.10 86 1002.6
20260507201925 57 294 0.9 2.6 0.00 0.10 0.10 86 1002.8
20260507201825 57 301 0.0 2.6 0.00 0.10 0.10 86 1002.9
20260507201726 57 306 0.0 2.6 0.00 0.10 0.10 86 1002.8
20260507201625 57 310 0.9 2.6 0.00 0.10 0.10 86 1002.9
20260507201525 57 310 0.9 2.6 0.00 0.10 0.10 86 1002.9
20260507201426 57 326 0.0 2.6 0.00 0.10 0.10 86 1002.7
20260507201325 57 322 0.9 2.6 0.00 0.10 0.10 85 1002.6
20260507201225 57 292 1.7 2.6 0.00 0.10 0.10 85 1002.6
20260507201126 57 307 0.0 0.9 0.00 0.10 0.10 85 1002.6
20260507201026 57 0 0.0 0.0 0.00 0.10 0.10 85 1002.4
20260507200926 57 0 0.0 0.0 0.00 0.10 0.10 85 1002.4
20260507200827 57 225 0.0 0.0 0.01 0.10 0.10 85 1002.5
20260507200725 57 225 0.0 0.0 0.01 0.10 0.10 85 1002.4
20260507200625 57 225 0.0 0.0 0.01 0.10 0.10 85 1002.3
20260507200525 57 225 0.0 0.0 0.01 0.10 0.10 85 1002.3
20260507200425 57 225 0.0 0.0 0.01 0.10 0.10 85 1002.1
20260507200326 57 225 0.0 0.0 0.01 0.10 0.10 85 1002.1
20260507200225 57 225 0.0 0.0 0.01 0.10 0.10 85 1002.3
20260507200126 57 225 0.0 0.0 0.01 0.10 0.10 85 1002.1
20260507200026 57 225 0.0 0.0 0.01 0.10 0.10 85 1002.2
20260507195926 57 225 0.0 0.0 0.01 0.10 0.10 85 1002.2
20260507195826 57 225 0.0 0.0 0.01 0.10 0.10 85 1002.3
20260507195726 57 225 0.0 0.0 0.01 0.10 0.10 85 1002.1
20260507195626 57 225 0.0 0.0 0.01 0.10 0.10 85 1002.2
20260507195527 57 225 0.0 0.0 0.01 0.10 0.10 85 1002.2
20260507195426 57 225 0.0 0.0 0.01 0.10 0.10 85 1002.2
20260507195325 57 225 0.0 0.0 0.01 0.10 0.10 85 1001.9
20260507195226 57 225 0.0 0.0 0.01 0.10 0.10 84 1002.2
20260507195127 57 0 0.0 0.0 0.01 0.10 0.10 84 1002.1
20260507195025 57 0 0.0 0.0 0.01 0.10 0.10 84 1001.9
20260507194927 57 0 0.0 0.0 0.01 0.10 0.10 84 1002.0
20260507194825 57 0 0.0 0.0 0.01 0.10 0.10 84 1002.0
20260507194725 57 0 0.0 0.0 0.01 0.10 0.10 84 1001.9
20260507194626 57 0 0.0 0.0 0.01 0.10 0.10 84 1001.8
20260507194525 57 0 0.0 0.0 0.01 0.10 0.10 84 1001.6
20260507194425 58 0 0.0 0.0 0.01 0.10 0.10 84 1001.7
20260507194325 58 225 0.0 0.9 0.01 0.10 0.10 84 1001.6
20260507194226 58 225 0.0 0.9 0.01 0.10 0.10 84 1001.7
20260507194126 58 225 0.0 0.9 0.01 0.10 0.10 84 1001.6
20260507194026 58 225 0.0 0.9 0.01 0.10 0.10 84 1001.5
20260507193926 58 225 0.0 0.9 0.01 0.10 0.10 84 1001.6
20260507193826 58 238 0.0 0.9 0.01 0.10 0.10 84 1001.7
20260507193726 58 253 0.0 1.7 0.01 0.10 0.10 84 1001.6
20260507193626 58 255 0.0 1.7 0.01 0.10 0.10 84 1001.6
20260507193526 58 255 0.0 1.7 0.01 0.10 0.10 84 1001.7
20260507193426 58 255 0.0 1.7 0.01 0.10 0.10 84 1001.6
20260507193326 58 257 0.0 1.7 0.01 0.10 0.10 84 1001.7
20260507193225 58 265 0.0 1.7 0.01 0.10 0.10 84 1001.5
20260507193125 58 265 0.0 1.7 0.01 0.10 0.10 84 1001.6
20260507193026 58 260 0.0 1.7 0.01 0.10 0.10 84 1001.5
20260507192925 58 257 0.0 1.7 0.01 0.10 0.10 84 1001.5
20260507192825 58 243 0.0 1.7 0.01 0.10 0.10 84 1001.5
20260507192725 58 209 0.0 1.7 0.01 0.10 0.10 84 1001.6
20260507192625 58 199 0.0 0.9 0.01 0.10 0.10 84 1001.4
20260507192526 58 205 0.0 0.9 0.01 0.10 0.10 84 1001.3
20260507192426 58 202 0.0 1.7 0.01 0.10 0.10 84 1001.4
20260507192326 58 196 0.0 1.7 0.01 0.10 0.10 84 1001.4
20260507192225 59 187 0.0 1.7 0.01 0.10 0.10 84 1001.5
20260507192125 59 177 0.0 2.6 0.01 0.10 0.10 84 1001.3
20260507192025 59 176 0.0 2.6 0.01 0.10 0.10 84 1001.2
20260507191926 59 175 0.0 2.6 0.01 0.10 0.10 84 1001.3
20260507191826 59 176 0.0 2.6 0.01 0.10 0.10 84 1001.3
20260507191726 59 173 0.0 2.6 0.01 0.10 0.10 84 1001.3
20260507191626 59 171 0.0 2.6 0.01 0.10 0.10 84 1001.2
20260507191526 59 168 0.0 2.6 0.01 0.10 0.10 84 1001.2
20260507191426 59 165 0.9 2.6 0.01 0.10 0.10 84 1001.2
20260507191326 59 164 0.0 2.6 0.01 0.10 0.10 84 1001.1
20260507191226 59 166 0.9 2.6 0.01 0.10 0.10 84 1000.9
20260507191126 59 171 0.9 2.6 0.01 0.10 0.10 84 1001.1
20260507191026 59 167 0.0 1.7 0.01 0.10 0.10 84 1001.1
20260507190926 59 181 0.9 1.7 0.00 0.09 0.09 84 1001.0
20260507190826 59 181 0.0 1.7 0.00 0.09 0.09 84 1001.0
20260507190726 59 174 0.0 1.7 0.00 0.09 0.09 84 1001.3
20260507190625 59 158 0.0 2.6 0.00 0.09 0.09 84 1001.1
20260507190525 59 153 0.0 2.6 0.00 0.09 0.09 84 1000.9
20260507190426 59 150 0.0 2.6 0.00 0.09 0.09 84 1001.0
20260507190326 59 146 0.0 2.6 0.00 0.09 0.09 84 1001.0
20260507190226 59 137 0.0 2.6 0.00 0.09 0.09 84 1001.0
20260507190126 59 139 0.0 2.6 0.00 0.09 0.09 84 1001.0
20260507190026 59 141 0.0 2.6 0.00 0.09 0.09 84 1001.0
20260507185926 59 141 0.0 2.6 0.00 0.09 0.09 84 1001.0
20260507185826 59 141 0.9 2.6 0.00 0.09 0.09 84 1001.0
20260507185726 59 143 0.0 2.6 0.00 0.09 0.09 84 1001.1
20260507185626 59 148 0.9 2.6 0.00 0.09 0.09 84 1000.9
20260507185525 59 151 0.0 2.6 0.00 0.09 0.09 84 1000.9
20260507185426 59 159 0.0 2.6 0.00 0.09 0.09 84 1001.1
20260507185326 59 162 0.0 2.6 0.00 0.09 0.09 84 1001.1
20260507185225 59 172 0.0 2.6 0.00 0.09 0.09 84 1000.9
20260507185125 59 173 0.0 2.6 0.00 0.09 0.09 84 1001.1
20260507185025 59 170 0.0 2.6 0.00 0.09 0.09 84 1001.1
20260507184926 59 163 0.0 2.6 0.00 0.09 0.09 84 1001.0
20260507184826 59 160 0.9 2.6 0.00 0.09 0.09 84 1001.0
20260507184725 59 154 0.9 2.6 0.00 0.09 0.09 84 1000.9
20260507184625 59 152 0.0 2.6 0.00 0.09 0.09 84 1001.0
20260507184526 60 150 1.7 2.6 0.00 0.09 0.09 84 1001.0
20260507184426 60 150 0.0 1.7 0.00 0.09 0.09 84 1001.0
20260507184326 60 152 0.0 1.7 0.00 0.09 0.09 84 1001.0
20260507184226 60 150 0.0 1.7 0.00 0.09 0.09 84 1000.8
20260507184125 60 150 0.9 1.7 0.00 0.09 0.09 84 1001.0
20260507184025 60 149 0.0 1.7 0.00 0.09 0.09 84 1001.1
20260507183926 60 150 0.0 1.7 0.00 0.09 0.09 84 1000.7
20260507183826 60 147 0.0 1.7 0.00 0.09 0.09 84 1000.8
20260507183725 60 148 0.0 1.7 0.00 0.09 0.09 84 1001.0
20260507183626 60 148 0.0 1.7 0.00 0.09 0.09 84 1000.8
20260507183525 60 153 0.9 1.7 0.00 0.09 0.09 84 1001.0
20260507183426 60 153 0.0 2.6 0.00 0.09 0.09 84 1000.9
20260507183325 60 155 0.9 2.6 0.00 0.09 0.09 84 1000.8
20260507183226 60 161 0.9 2.6 0.00 0.09 0.09 84 1000.7
20260507183125 60 166 0.0 2.6 0.00 0.09 0.09 84 1000.8
20260507183025 60 169 0.0 2.6 0.00 0.09 0.09 83 1000.8
20260507182925 60 175 0.0 2.6 0.00 0.09 0.09 83 1000.9
20260507182826 60 179 0.0 2.6 0.00 0.09 0.09 83 1000.8
20260507182726 60 182 0.0 2.6 0.00 0.09 0.09 83 1000.9
20260507182625 60 187 0.0 2.6 0.00 0.09 0.09 83 1000.9
20260507182525 60 185 0.0 2.6 0.00 0.09 0.09 83 1000.9
20260507182425 60 182 0.9 2.6 0.00 0.09 0.09 83 1000.9
20260507182325 60 173 0.0 2.6 0.00 0.09 0.09 83 1000.9
20260507182226 60 170 0.0 1.7 0.00 0.09 0.09 83 1000.9
20260507182126 60 166 0.0 1.7 0.00 0.09 0.09 83 1001.0
20260507182025 60 165 0.0 1.7 0.00 0.09 0.09 83 1000.9
20260507181925 60 156 0.0 1.7 0.00 0.09 0.09 83 1001.0
20260507181825 60 152 0.0 1.7 0.00 0.09 0.09 83 1000.9
20260507181725 60 148 0.0 1.7 0.00 0.09 0.09 83 1000.9
20260507181626 60 145 0.0 1.7 0.00 0.09 0.09 83 1000.8
20260507181525 60 144 0.0 1.7 0.00 0.09 0.09 83 1000.7
20260507181426 60 139 0.0 1.7 0.00 0.09 0.09 83 1000.6
20260507181326 60 146 0.0 2.6 0.00 0.09 0.09 83 1000.6
20260507181226 60 150 0.0 2.6 0.00 0.09 0.09 83 1000.6
20260507181124 60 151 0.9 2.6 0.00 0.09 0.09 83 1000.8
20260507181025 60 154 0.0 2.6 0.00 0.09 0.09 83 1000.8
20260507180926 60 154 0.0 2.6 0.00 0.09 0.09 83 1000.8
20260507180826 60 155 0.0 2.6 0.00 0.09 0.09 83 1000.7
20260507180726 60 156 0.9 2.6 0.00 0.09 0.09 83 1000.7
20260507180626 60 157 0.0 2.6 0.00 0.09 0.09 83 1000.6
20260507180526 60 157 0.0 2.6 0.00 0.09 0.09 83 1000.6
20260507180425 60 165 0.0 4.3 0.00 0.09 0.09 83 1000.5
20260507180325 60 167 1.7 4.3 0.00 0.09 0.09 83 1000.6
20260507180225 60 162 0.0 4.3 0.00 0.09 0.09 83 1000.7
20260507180126 60 158 0.0 4.3 0.00 0.09 0.09 83 1000.6
20260507180026 60 155 0.0 4.3 0.00 0.09 0.09 83 1000.5
20260507175927 60 157 1.7 4.3 0.00 0.09 0.09 83 1000.4
20260507175825 60 159 0.0 4.3 0.00 0.09 0.09 83 1000.3
20260507175725 60 161 0.0 4.3 0.00 0.09 0.09 83 1000.5
20260507175625 60 169 0.9 4.3 0.00 0.09 0.09 83 1000.6
20260507175525 60 167 0.0 4.3 0.00 0.09 0.09 83 1000.5
20260507175426 60 166 2.6 4.3 0.00 0.09 0.09 83 1000.7
20260507175325 60 163 0.0 2.6 0.00 0.09 0.09 83 1000.5
20260507175225 60 170 1.7 2.6 0.00 0.09 0.09 83 1000.4
20260507175126 60 176 0.0 1.7 0.00 0.09 0.09 83 1000.3
20260507175025 60 178 0.0 1.7 0.00 0.09 0.09 83 1000.5
20260507174926 60 178 0.0 2.6 0.00 0.09 0.09 83 1000.4
20260507174825 60 186 0.0 2.6 0.00 0.09 0.09 83 1000.4
20260507174725 60 191 0.9 2.6 0.00 0.09 0.09 83 1000.4
20260507174625 60 185 0.0 2.6 0.00 0.09 0.09 83 1000.4
20260507174526 60 186 0.9 2.6 0.00 0.09 0.09 82 1000.4
20260507174426 60 185 0.9 2.6 0.00 0.09 0.09 82 1000.4
20260507174326 60 182 0.0 2.6 0.00 0.09 0.09 82 1000.3
20260507174226 60 175 0.0 2.6 0.00 0.09 0.09 82 1000.3
20260507174125 60 172 0.0 2.6 0.00 0.09 0.09 82 1000.3
20260507174025 60 168 0.0 2.6 0.00 0.09 0.09 82 1000.3
20260507173926 60 170 1.7 2.6 0.00 0.09 0.09 82 1000.4
20260507173826 60 159 0.0 2.6 0.00 0.09 0.09 82 1000.2
20260507173726 60 148 1.7 2.6 0.00 0.09 0.09 82 1000.4
20260507173626 60 141 0.9 1.7 0.00 0.09 0.09 82 1000.4
20260507173526 60 141 0.0 1.7 0.00 0.09 0.09 82 1000.1
20260507173425 60 139 0.0 1.7 0.00 0.09 0.09 82 1000.2
20260507173325 60 141 0.9 1.7 0.00 0.09 0.09 82 1000.2
20260507173226 60 148 0.9 1.7 0.00 0.09 0.09 82 1000.2
20260507173126 60 164 0.0 1.7 0.00 0.09 0.09 82 1000.1
20260507173025 60 169 0.0 1.7 0.00 0.09 0.09 82 1000.4
20260507172924 60 153 0.0 1.7 0.00 0.09 0.09 82 1000.2
20260507172825 60 157 0.0 1.7 0.00 0.09 0.09 82 1000.4
20260507172725 60 155 0.0 2.6 0.00 0.09 0.09 82 1000.2
20260507172626 60 165 0.0 2.6 0.00 0.09 0.09 82 1000.2
20260507172526 60 181 0.0 2.6 0.00 0.09 0.09 82 1000.1
20260507172426 60 178 0.0 2.6 0.00 0.09 0.09 82 1000.2
20260507172326 60 179 0.0 2.6 0.00 0.09 0.09 82 1000.3
20260507172225 60 179 0.9 2.6 0.00 0.09 0.09 82 1000.2
20260507172126 60 174 0.0 3.5 0.00 0.09 0.09 82 1000.2
20260507172026 60 168 0.0 4.3 0.00 0.09 0.09 82 1000.2
20260507171925 60 167 0.0 4.3 0.00 0.09 0.09 82 1000.4
20260507171826 60 166 0.9 4.3 0.00 0.09 0.09 82 1000.3
20260507171725 60 169 0.9 4.3 0.00 0.09 0.09 81 1000.2
20260507171625 60 172 0.9 4.3 0.00 0.09 0.09 81 1000.1
20260507171526 60 169 0.9 4.3 0.00 0.09 0.09 81 1000.2
20260507171425 60 169 0.0 4.3 0.00 0.09 0.09 81 1000.4
20260507171325 60 166 0.0 4.3 0.00 0.09 0.09 81 1000.2
20260507171226 60 165 0.0 4.3 0.00 0.09 0.09 81 1000.2
20260507171126 60 164 2.6 4.3 0.00 0.09 0.09 81 1000.1
20260507171025 60 171 0.0 2.6 0.00 0.09 0.09 81 1000.2
20260507170925 60 172 0.9 2.6 0.00 0.09 0.09 81 1000.3
20260507170825 60 171 0.9 2.6 0.00 0.09 0.09 81 1000.2
20260507170726 60 164 1.7 2.6 0.00 0.09 0.09 81 1000.2
20260507170625 60 154 0.9 1.7 0.00 0.09 0.09 81 1000.2
20260507170527 60 149 0.0 1.7 0.00 0.09 0.09 81 1000.1
20260507170426 60 148 0.9 1.7 0.00 0.09 0.09 81 1000.1
20260507170326 60 149 0.0 1.7 0.00 0.09 0.09 81 1000.2
20260507170226 60 146 0.0 1.7 0.00 0.09 0.09 81 1000.2
20260507170126 60 143 0.0 1.7 0.00 0.09 0.09 81 1000.3
20260507170024 60 140 0.0 1.7 0.00 0.09 0.09 81 1000.2
20260507165926 60 144 0.0 1.7 0.00 0.09 0.09 81 1000.1
20260507165825 60 149 0.0 1.7 0.00 0.09 0.09 81 1000.2
20260507165725 60 151 0.9 1.7 0.00 0.09 0.09 81 1000.1
20260507165626 60 153 0.9 1.7 0.00 0.09 0.09 81 999.9
20260507165524 60 165 0.0 0.9 0.00 0.09 0.09 81 1000.2
20260507165425 60 168 0.0 0.9 0.00 0.09 0.09 81 1000.2
20260507165325 60 172 0.0 0.9 0.00 0.09 0.09 81 1000.2
20260507165225 60 171 0.0 0.9 0.00 0.09 0.09 81 1000.2
20260507165125 60 171 0.0 0.9 0.00 0.09 0.09 81 1000.1
20260507165025 60 170 0.0 0.9 0.00 0.09 0.09 81 1000.1
20260507164926 60 165 0.0 0.9 0.00 0.09 0.09 81 1000.2
20260507164826 60 156 0.0 0.9 0.00 0.09 0.09 81 1000.1
20260507164726 60 156 0.0 0.9 0.00 0.09 0.09 81 1000.2
20260507164626 60 163 0.0 0.9 0.00 0.09 0.09 81 1000.1
20260507164526 60 143 0.0 0.9 0.00 0.09 0.09 81 1000.2
20260507164426 60 138 0.0 0.9 0.00 0.09 0.09 81 1000.1
20260507164326 60 135 0.0 0.9 0.00 0.09 0.09 81 1000.1
20260507164225 60 135 0.0 0.9 0.00 0.09 0.09 81 1000.3
20260507164126 60 135 0.0 0.9 0.00 0.09 0.09 81 1000.1
20260507164026 60 135 0.0 0.9 0.00 0.09 0.09 81 1000.3
20260507163926 60 135 0.0 0.9 0.00 0.09 0.09 81 1000.2
20260507163826 60 135 0.0 0.9 0.00 0.09 0.09 81 1000.1
20260507163725 60 135 0.0 0.9 0.00 0.09 0.09 81 1000.1
20260507163625 60 135 0.0 0.9 0.00 0.09 0.09 81 1000.1
20260507163525 60 135 0.0 0.9 0.01 0.09 0.09 81 1000.1
20260507163425 60 137 0.0 0.0 0.01 0.09 0.09 82 1000.1
20260507163325 60 138 0.0 0.0 0.01 0.09 0.09 82 1000.2
20260507163225 60 138 0.0 0.0 0.01 0.09 0.09 82 1000.2
20260507163125 60 138 0.0 0.0 0.01 0.09 0.09 82 1000.2
20260507163026 60 137 0.0 0.9 0.01 0.09 0.09 82 1000.1
20260507162925 60 137 0.0 0.9 0.01 0.09 0.09 82 1000.1
20260507162826 60 133 0.0 0.9 0.01 0.09 0.09 82 1000.1
20260507162725 60 133 0.0 0.9 0.01 0.09 0.09 82 1000.1
20260507162626 60 133 0.0 0.9 0.01 0.09 0.09 82 1000.1
20260507162525 60 133 0.0 0.9 0.01 0.09 0.09 82 999.9
20260507162425 60 132 0.0 0.9 0.01 0.09 0.09 82 1000.1
20260507162325 60 130 0.0 0.9 0.01 0.09 0.09 82 1000.2
20260507162225 60 130 0.0 0.9 0.01 0.09 0.09 82 1000.3
20260507162125 60 130 0.0 0.9 0.01 0.09 0.09 82 1000.1
20260507162025 60 129 0.0 0.9 0.01 0.09 0.09 82 1000.1
20260507161926 60 128 0.0 0.9 0.01 0.09 0.09 82 1000.3
20260507161826 60 137 0.0 0.9 0.01 0.09 0.09 82 1000.2
20260507161726 60 143 0.0 0.9 0.01 0.09 0.09 82 1000.1
20260507161625 60 143 0.0 0.9 0.01 0.09 0.09 82 1000.1
20260507161526 60 142 0.0 0.9 0.01 0.09 0.09 82 1000.3
20260507161426 60 142 0.0 0.9 0.01 0.09 0.09 82 1000.3
20260507161326 60 145 0.0 0.9 0.01 0.09 0.09 82 1000.1
20260507161226 60 146 0.0 0.9 0.01 0.09 0.09 82 1000.1
20260507161126 60 146 0.0 0.9 0.01 0.09 0.09 82 1000.1
20260507161025 60 146 0.0 0.9 0.01 0.09 0.09 82 1000.1
20260507160926 60 146 0.0 0.9 0.01 0.09 0.09 82 1000.2
20260507160826 60 144 0.0 0.9 0.01 0.09 0.09 82 1000.1
20260507160726 60 140 0.0 0.9 0.01 0.09 0.09 82 1000.3
20260507160626 60 142 0.0 0.9 0.01 0.09 0.09 82 1000.1
20260507160526 60 155 0.0 0.9 0.01 0.09 0.09 82 1000.3
20260507160426 60 157 0.0 0.9 0.01 0.09 0.09 82 1000.1
20260507160326 60 148 0.0 1.7 0.01 0.09 0.09 82 1000.2
20260507160225 60 143 0.0 1.7 0.01 0.09 0.09 82 1000.3
20260507160126 60 147 0.0 1.7 0.01 0.09 0.09 82 1000.1
20260507160026 60 147 0.0 1.7 0.01 0.09 0.09 82 1000.4
20260507155925 60 142 0.0 1.7 0.01 0.09 0.09 82 1000.1
20260507155826 60 140 0.0 1.7 0.01 0.09 0.09 82 1000.4
20260507155726 60 139 0.0 1.7 0.01 0.09 0.09 81 1000.3
20260507155626 60 138 0.0 1.7 0.01 0.09 0.09 81 1000.3
20260507155526 60 130 0.0 1.7 0.01 0.09 0.09 81 1000.4
20260507155426 60 129 0.0 1.7 0.01 0.09 0.09 81 1000.5
20260507155325 60 130 0.0 0.9 0.01 0.09 0.09 81 1000.4
20260507155226 60 132 0.0 0.9 0.01 0.09 0.09 81 1000.4
20260507155126 60 128 0.0 0.9 0.01 0.09 0.09 81 1000.2
20260507155026 60 123 0.0 0.9 0.01 0.09 0.09 81 1000.4
20260507154926 60 126 0.0 0.9 0.01 0.09 0.09 81 1000.2
20260507154825 60 130 0.0 0.9 0.01 0.09 0.09 81 1000.4
20260507154725 60 130 0.0 1.7 0.02 0.09 0.09 81 1000.3
20260507154626 60 131 0.0 1.7 0.02 0.09 0.09 81 1000.2
20260507154526 60 131 0.0 1.7 0.02 0.09 0.09 81 1000.3
20260507154426 60 131 0.0 1.7 0.02 0.09 0.09 81 1000.4
20260507154326 60 134 0.0 1.7 0.02 0.09 0.09 81 1000.5
20260507154226 60 136 0.0 1.7 0.02 0.09 0.09 81 1000.2
20260507154127 60 136 0.0 1.7 0.02 0.09 0.09 81 1000.5
20260507154045 60 141 0.0 1.7 0.02 0.09 0.00
20260507154025 60 141 0.0 1.7 0.02 0.09 0.09 81 1000.3
20260507153925 60 145 0.0 1.7 0.02 0.09 0.09 81 1000.5
20260507153825 60 146 0.9 1.7 0.02 0.09 0.09 81 1000.2
20260507153732 60 146 0.0 1.7 0.01 0.08 0.08 81 1000.3
20260507153726 60 149 0.0 1.7 0.02 0.09 0.09 81 1000.5
20260507153626 60 143 0.0 1.7 0.01 0.08 0.08 81 1000.4
20260507153527 60 146 0.0 1.7 0.01 0.08 0.08 81 1000.3
20260507153435 60 133 0.0 1.7 0.01 0.08 0.08 80 1000.2
20260507153425 60 149 0.0 0.9 0.01 0.08 0.08 80 1000.3
20260507153331 60 131 0.0 1.7 0.01 0.08 0.08 80 1000.3
20260507153325 60 138 0.0 1.7 0.01 0.08 0.08 80 1000.5
20260507153226 60 133 0.0 1.7 0.01 0.08 0.08 80 1000.2
20260507153125 60 134 0.0 1.7 0.01 0.08 0.08 80 1000.4
20260507153104 60 127 0.0 1.7 0.01 0.08 0.08 80 1000.3
20260507153025 60 131 0.0 1.7 0.01 0.08 0.08 80 1000.3
20260507152932 60 135 0.0 1.7 0.01 0.08 0.08 81 1000.3
20260507152926 60 127 0.0 1.7 0.01 0.08 0.08 80 1000.4
20260507152912 60 135 0.0 1.7 0.01 0.08 0.08 81 1000.3
20260507152832 60 135 0.0 0.9 0.01 0.08 0.08 81 1000.4
20260507152826 60 127 0.0 1.7 0.01 0.08 0.08 80 1000.3
20260507152726 60 127 0.0 1.7 0.01 0.08 0.08 81 1000.3
20260507152626 60 135 0.0 1.7 0.01 0.08 0.08 81 1000.5
20260507152525 60 135 0.0 1.7 0.01 0.08 0.08 81 1000.3
20260507152425 60 135 0.0 1.7 0.01 0.08 0.08 81 1000.3
20260507152325 60 135 0.0 1.7 0.01 0.08 0.08 81 1000.5
20260507152225 60 135 0.0 0.9 0.01 0.08 0.08 81 1000.4
20260507152125 60 135 0.0 0.9 0.01 0.08 0.08 81 1000.5
20260507152040 61 135 0.0 0.9 0.01 0.08 0.08 81 1000.3
20260507152025 60 135 0.0 0.9 0.01 0.08 0.08 81 1000.5
20260507151925 61 135 0.0 0.9 0.01 0.08 0.08 81 1000.3
20260507151826 61 135 0.0 0.9 0.01 0.08 0.08 81 1000.3
20260507151726 61 135 0.0 0.9 0.01 0.08 0.08 81 1000.3
20260507151625 61 135 0.0 0.9 0.01 0.08 0.08 81 1000.4
20260507151525 61 135 0.0 0.9 0.01 0.08 0.08 81 1000.3
20260507151425 61 135 0.0 0.0 0.01 0.08 0.08 81 1000.5
20260507151325 61 135 0.0 0.0 0.01 0.08 0.08 81 1000.3
20260507151225 60 135 0.0 0.0 0.01 0.08 0.08 81 1000.5
20260507151125 60 135 0.0 0.0 0.01 0.08 0.08 81 1000.2
20260507151026 60 135 0.0 0.0 0.01 0.08 0.08 81 1000.3
20260507150925 60 147 0.0 0.9 0.01 0.08 0.08 81 1000.3
20260507150825 60 145 0.0 0.9 0.01 0.08 0.08 81 1000.4
20260507150725 60 147 0.0 0.9 0.01 0.08 0.08 81 1000.5
20260507150626 60 149 0.0 0.9 0.01 0.08 0.08 81 1000.5
20260507150526 60 150 0.0 0.9 0.01 0.08 0.08 81 1000.2
20260507150426 60 147 0.0 0.9 0.02 0.08 0.08 81 1000.5
20260507150325 60 147 0.0 0.9 0.02 0.08 0.08 81 1000.3
20260507150227 60 150 0.0 0.9 0.02 0.08 0.08 81 1000.4
20260507150126 60 151 0.0 0.9 0.02 0.08 0.08 81 1000.5
20260507150025 60 153 0.0 0.9 0.02 0.08 0.08 81 1000.4
20260507145925 60 148 0.0 0.9 0.02 0.08 0.08 81 1000.6
20260507145825 60 156 0.0 0.9 0.02 0.08 0.08 81 1000.3
20260507145725 60 152 0.0 0.9 0.03 0.08 0.08 81 1000.3
20260507145626 60 148 0.0 0.9 0.03 0.08 0.08 81 1000.3
20260507145525 60 144 0.0 0.9 0.03 0.08 0.08 81 1000.5
20260507145426 60 145 0.0 0.9 0.03 0.08 0.08 81 1000.4
20260507145326 60 155 0.0 1.7 0.03 0.08 0.08 81 1000.4
20260507145226 60 158 0.0 1.7 0.03 0.08 0.08 81 1000.5
20260507145126 60 160 0.0 1.7 0.03 0.08 0.08 81 1000.3
20260507145026 60 162 0.0 1.7 0.03 0.08 0.08 81 1000.8
20260507144925 60 160 0.0 1.7 0.03 0.08 0.08 81 1000.5
20260507144827 60 162 0.0 1.7 0.03 0.08 0.08 81 1000.6
20260507144727 60 162 0.0 1.7 0.02 0.07 0.07 81 1000.5
20260507144625 61 164 0.0 1.7 0.02 0.07 0.07 81 1000.5
20260507144526 61 159 0.0 2.6 0.02 0.07 0.07 81 1000.6
20260507144427 61 167 0.0 5.2 0.02 0.07 0.07 81 1000.5
20260507144326 61 167 0.0 5.2 0.02 0.07 0.07 81 1000.6
20260507144226 61 164 0.0 5.2 0.02 0.07 0.07 80 1000.5
20260507144125 61 161 0.0 5.2 0.02 0.07 0.07 80 1000.5
20260507144026 61 160 0.0 5.2 0.02 0.07 0.07 80 1000.4
20260507143925 61 160 0.0 5.2 0.02 0.07 0.07 80 1000.4
20260507143826 61 160 0.0 5.2 0.02 0.07 0.07 80 1000.3
20260507143727 61 160 0.0 5.2 0.02 0.07 0.07 80 1000.7
20260507143626 61 160 0.0 5.2 0.02 0.07 0.07 80 1000.2
20260507143526 61 163 0.0 5.2 0.02 0.07 0.07 80 1000.3
20260507143426 61 156 0.0 2.6 0.02 0.07 0.07 80 1000.4
20260507143327 61 157 0.0 2.6 0.02 0.07 0.07 80 1000.2
20260507143225 61 157 0.0 2.6 0.02 0.07 0.07 79 1000.3
20260507143127 61 158 0.0 2.6 0.02 0.07 0.07 79 1000.2
20260507143026 61 154 0.0 2.6 0.02 0.07 0.07 79 1000.2
20260507142926 61 158 0.9 2.6 0.02 0.07 0.07 78 1000.1
20260507142826 61 127 0.0 2.6 0.02 0.07 0.07 78 1000.1
20260507142726 61 127 0.0 2.6 0.02 0.07 0.07 78 1000.0
20260507142626 61 127 0.0 2.6 0.02 0.07 0.07 77 1000.2
20260507142526 61 127 0.0 2.6 0.02 0.07 0.07 77 1000.2
20260507142427 61 127 0.0 2.6 0.02 0.07 0.07 77 1000.2
20260507142326 61 127 0.0 2.6 0.02 0.07 0.07 77 1000.2
20260507142226 62 127 0.0 2.6 0.02 0.07 0.07 76 1000.1
20260507142126 62 125 0.0 2.6 0.02 0.07 0.07 76 1000.2
20260507142025 62 110 0.9 2.6 0.02 0.07 0.07 76 1000.1
20260507141925 62 91 0.0 2.6 0.02 0.07 0.07 76 1000.3
20260507141825 62 0 0.0 0.0 0.02 0.07 0.07 75 1000.2
20260507141725 62 0 0.0 0.0 0.02 0.07 0.07 75 1000.1
20260507141625 62 135 0.0 0.9 0.02 0.07 0.07 75 1000.1
20260507141525 62 139 0.0 0.9 0.02 0.07 0.07 75 1000.1
20260507141426 62 165 0.0 0.9 0.02 0.07 0.07 74 1000.1
20260507141326 62 186 0.0 0.9 0.02 0.07 0.07 74 1000.0
20260507141225 62 194 0.0 0.9 0.02 0.07 0.07 74 1000.0
20260507141125 62 201 0.0 0.9 0.02 0.07 0.07 74 1000.2
20260507141025 62 205 0.0 0.9 0.02 0.07 0.07 74 1000.1
20260507140925 62 203 0.0 0.9 0.02 0.07 0.07 74 1000.0
20260507140825 62 189 0.0 1.7 0.02 0.07 0.07 74 1000.0
20260507140726 62 201 0.0 1.7 0.02 0.07 0.07 74 1000.0
20260507140626 63 205 0.0 1.7 0.02 0.07 0.07 74 1000.0
20260507140525 63 214 0.0 1.7 0.01 0.05 0.05 73 1000.0
20260507140425 63 213 0.0 1.7 0.01 0.05 0.05 73 1000.1
20260507140325 63 212 0.0 1.7 0.01 0.05 0.05 73 1000.2
20260507140225 63 210 0.0 1.7 0.01 0.05 0.05 73 1000.0
20260507140125 63 212 0.0 1.7 0.01 0.05 0.05 73 1000.0
20260507140025 63 213 0.0 1.7 0.01 0.05 0.05 73 1000.1
20260507135926 63 225 0.0 1.7 0.01 0.05 0.05 74 1000.0
20260507135825 64 240 0.0 1.7 0.00 0.04 0.04 71 1000.0
20260507135725 64 246 0.0 1.7 0.00 0.04 0.04 71 1000.1
20260507135625 64 255 0.0 1.7 0.00 0.04 0.04 71 1000.0
20260507135526 64 255 0.0 1.7 0.00 0.04 0.04 71 1000.0
20260507135427 64 255 0.0 1.7 0.00 0.04 0.04 71 1000.1
20260507135325 64 255 0.0 1.7 0.01 0.04 0.04 71 1000.0
20260507135225 64 253 0.0 1.7 0.01 0.04 0.04 71 1000.0
20260507135126 64 241 0.0 1.7 0.01 0.04 0.04 71 999.8
20260507135025 64 239 0.0 1.7 0.02 0.04 0.04 72 999.8
20260507134925 64 251 0.0 1.7 0.02 0.04 0.04 72 1000.0
20260507134825 64 135 0.0 0.0 0.02 0.04 0.04 72 999.8
20260507134726 64 135 0.0 0.0 0.02 0.04 0.04 72 1000.0
20260507134626 64 135 0.0 0.0 0.02 0.04 0.04 72 999.8
20260507134526 64 192 0.0 0.0 0.03 0.04 0.04 72 999.8
20260507134426 64 229 0.0 0.0 0.03 0.04 0.04 72 999.8
20260507134325 64 229 0.0 0.0 0.03 0.04 0.04 72 1000.0
20260507134225 64 229 0.0 0.0 0.03 0.04 0.04 72 999.9
20260507134125 64 259 0.0 0.0 0.04 0.04 0.04 72 999.9
20260507134025 64 259 0.0 0.0 0.04 0.04 0.04 72 999.8
20260507133926 64 259 0.0 0.0 0.04 0.04 0.04 72 999.7
20260507133826 64 259 0.0 0.0 0.04 0.04 0.04 72 999.8
20260507133726 64 259 0.0 0.0 0.04 0.04 0.04 72 999.6
20260507133627 65 259 0.0 0.0 0.04 0.04 0.04 72 999.8
20260507133527 65 267 0.0 0.0 0.04 0.04 0.04 72 999.7
20260507133426 65 0 0.0 0.0 0.04 0.04 0.04 72 999.8
20260507133325 65 0 0.0 0.0 0.04 0.04 0.04 73 999.7
20260507133225 65 0 0.0 0.0 0.04 0.04 0.04 73 999.7
20260507133125 65 0 0.0 0.0 0.04 0.04 0.04 73 999.8
20260507133026 65 0 0.0 0.0 0.04 0.04 0.04 73 999.6
20260507132925 65 0 0.0 0.0 0.04 0.04 0.04 73 999.7
20260507132826 65 0 0.0 0.0 0.04 0.04 0.04 73 999.7
20260507132725 65 0 0.0 0.0 0.04 0.04 0.04 73 999.7
20260507132626 65 0 0.0 0.0 0.04 0.04 0.04 73 999.7
20260507132526 65 0 0.0 0.0 0.04 0.04 0.04 73 999.6
20260507132425 65 0 0.0 0.0 0.04 0.04 0.04 73 999.7
20260507132325 65 0 0.0 0.0 0.04 0.04 0.04 73 999.6
20260507132225 65 0 0.0 0.0 0.04 0.04 0.04 73 999.6
20260507132125 64 0 0.0 0.0 0.04 0.04 0.04 73 999.8
20260507132026 64 0 0.0 0.0 0.04 0.04 0.04 73 999.7
20260507131925 64 0 0.0 0.0 0.04 0.04 0.04 73 999.9
20260507131825 64 0 0.0 0.0 0.04 0.04 0.04 73 999.6
20260507131725 64 0 0.0 0.0 0.04 0.04 0.04 73 999.5
20260507131625 64 0 0.0 0.0 0.04 0.04 0.04 73 999.7
20260507131526 64 0 0.0 0.0 0.04 0.04 0.04 73 999.9
20260507131426 64 0 0.0 0.0 0.04 0.04 0.04 73 999.8
20260507131326 64 0 0.0 0.0 0.04 0.04 0.04 73 999.8
20260507131226 64 0 0.0 0.0 0.04 0.04 0.04 73 999.6
20260507131126 64 0 0.0 0.0 0.04 0.04 0.04 73 999.8
20260507131025 64 0 0.0 0.0 0.04 0.04 0.04 72 999.7
20260507130926 64 0 0.0 0.0 0.04 0.04 0.04 72 999.6
20260507130825 64 0 0.0 0.0 0.04 0.04 0.04 72 999.8
20260507130727 64 0 0.0 0.0 0.04 0.04 0.04 72 999.6
20260507130625 64 0 0.0 0.0 0.04 0.04 0.04 72 999.6
20260507130525 64 0 0.0 0.0 0.04 0.04 0.04 71 999.6
20260507130426 64 0 0.0 0.0 0.04 0.04 0.04 71 999.7
20260507130326 64 0 0.0 0.0 0.04 0.04 0.04 71 999.7
20260507130226 64 0 0.0 0.0 0.04 0.04 0.04 71 999.5
20260507130125 64 0 0.0 0.0 0.04 0.04 0.04 71 999.8
20260507130026 64 139 0.0 0.9 0.04 0.04 0.04 71 999.8
20260507125925 64 160 0.0 0.9 0.04 0.04 0.04 71 999.8
20260507125825 64 130 0.0 0.9 0.04 0.04 0.04 70 999.8
20260507125725 63 208 0.0 0.9 0.04 0.04 0.04 72 999.7
20260507125625 64 208 0.0 0.9 0.04 0.04 0.04 70 999.7
20260507125525 64 222 0.0 1.7 0.04 0.04 0.04 70 999.8
20260507125426 64 253 0.0 1.7 0.03 0.03 0.03 69 999.8
20260507125326 64 256 0.0 1.7 0.03 0.03 0.03 68 999.8
20260507125225 64 249 0.0 1.7 0.03 0.03 0.03 68 999.9
20260507125126 64 249 0.0 1.7 0.03 0.03 0.03 67 999.8
20260507125025 64 260 0.0 1.7 0.02 0.02 0.02 66 1000.0
20260507124926 64 262 0.0 1.7 0.02 0.02 0.02 66 1000.1
20260507124826 65 256 0.0 1.7 0.02 0.02 0.02 66 1000.1
20260507124725 65 257 0.0 1.7 0.02 0.02 0.02 65 1000.0
20260507124625 65 258 0.0 1.7 0.01 0.01 0.01 64 1000.0
20260507124526 65 257 0.0 1.7 0.01 0.01 0.01 64 1000.2
20260507124425 66 242 0.0 1.7 0.01 0.01 0.01 64 999.9
20260507124326 66 225 0.0 0.9 0.01 0.01 0.01 63 999.9
20260507124226 66 0 0.0 0.0 0.01 0.01 0.01 63 999.9
20260507124125 67 0 0.0 0.0 0.00 0.00 0.00 62 1000.1
20260507124025 67 0 0.0 0.0 0.00 0.00 0.00 62 1000.0
20260507123926 67 0 0.0 0.0 0.00 0.00 0.00 61 999.8
20260507123825 67 0 0.0 0.0 0.00 0.00 0.00 61 999.7
20260507123726 67 0 0.0 0.0 0.00 0.00 0.00 61 999.8
20260507123626 67 181 0.0 0.0 0.00 0.00 0.00 60 999.8
20260507123526 67 181 0.0 0.0 0.00 0.00 0.00 60 999.9
20260507123426 67 181 0.0 0.0 0.00 0.00 0.00 60 999.7
20260507123327 67 181 0.0 0.0 0.00 0.00 0.00 60 999.6
20260507123225 67 181 0.0 0.0 0.00 0.00 0.00 60 999.6
20260507123126 67 181 0.0 0.0 0.00 0.00 0.00 60 999.7
20260507123025 67 179 0.0 0.0 0.00 0.00 0.00 60 999.7
20260507122926 67 310 0.0 0.9 0.00 0.00 0.00 60 999.7
20260507122825 67 311 0.0 0.9 0.00 0.00 0.00 60 999.8
20260507122725 67 311 0.0 0.9 0.00 0.00 0.00 60 999.7
20260507122626 68 326 0.0 0.9 0.00 0.00 0.00 60 999.6
20260507122526 68 326 0.0 0.9 0.00 0.00 0.00 60 999.8
20260507122425 68 326 0.0 0.9 0.00 0.00 0.00 60 999.7
20260507122325 68 326 0.0 0.9 0.00 0.00 0.00 60 999.7
20260507122226 68 326 0.0 0.9 0.00 0.00 0.00 60 999.7
20260507122125 68 326 0.0 0.9 0.00 0.00 0.00 61 999.6
20260507122025 68 314 0.0 0.9 0.00 0.00 0.00 61 999.6
20260507121926 68 314 0.0 0.9 0.00 0.00 0.00 60 999.6
20260507121826 69 0 0.0 0.0 0.00 0.00 0.00 60 999.7
20260507121725 69 0 0.0 0.0 0.00 0.00 0.00 60 999.5
20260507121625 69 314 0.0 0.0 0.00 0.00 0.00 60 999.5
20260507121525 69 314 0.0 0.0 0.00 0.00 0.00 59 999.6
20260507121426 69 314 0.0 0.0 0.00 0.00 0.00 59 999.6
20260507121325 69 314 0.0 0.0 0.00 0.00 0.00 58 999.7
20260507121227 69 314 0.0 0.0 0.00 0.00 0.00 57 999.6
20260507121127 69 314 0.0 0.0 0.00 0.00 0.00 57 999.6
20260507121026 69 314 0.0 0.0 0.00 0.00 0.00 56 999.6
20260507120925 69 314 0.0 0.0 0.00 0.00 0.00 56 999.7
20260507120826 70 314 0.0 0.0 0.00 0.00 0.00 55 999.6
20260507120727 70 314 0.0 0.0 0.00 0.00 0.00 54 999.6
20260507120625 70 314 0.0 0.0 0.00 0.00 0.00 53 999.8
20260507120526 70 0 0.0 0.0 0.00 0.00 0.00 52 999.8
20260507120425 70 0 0.0 0.0 0.00 0.00 0.00 52 999.7
20260507120325 70 0 0.0 0.0 0.00 0.00 0.00 52 999.7
20260507120226 70 0 0.0 0.0 0.00 0.00 0.00 52 999.7
20260507120125 70 0 0.0 0.0 0.00 0.00 0.00 52 999.7
20260507120026 70 0 0.0 0.0 0.00 0.00 0.00 52 999.7
20260507115927 70 0 0.0 0.0 0.00 0.00 0.00 52 999.7
20260507115826 70 0 0.0 0.0 0.00 0.00 0.00 52 999.6
20260507115725 70 0 0.0 0.0 0.00 0.00 0.00 52 999.6
20260507115626 71 0 0.0 0.0 0.00 0.00 0.00 52 999.8
20260507115526 70 0 0.0 0.0 0.00 0.00 0.00 52 999.6
20260507115426 71 0 0.0 0.0 0.00 0.00 0.00 52 999.5
20260507115325 71 0 0.0 0.0 0.00 0.00 0.00 52 999.6
20260507115225 71 0 0.0 0.0 0.00 0.00 0.00 52 999.6
20260507115125 71 0 0.0 0.0 0.00 0.00 0.00 52 999.7
20260507115025 71 0 0.0 0.0 0.00 0.00 0.00 52 999.6
20260507114927 71 0 0.0 0.0 0.00 0.00 0.00 52 999.6
20260507114825 71 0 0.0 0.0 0.00 0.00 0.00 52 999.6
20260507114726 71 0 0.0 0.0 0.00 0.00 0.00 52 999.6
20260507114626 71 0 0.0 0.0 0.00 0.00 0.00 52 999.5
20260507114526 71 0 0.0 0.0 0.00 0.00 0.00 52 999.5
20260507114426 71 0 0.0 0.0 0.00 0.00 0.00 52 999.4
20260507114326 71 0 0.0 0.0 0.00 0.00 0.00 52 999.4
20260507114225 71 0 0.0 0.0 0.00 0.00 0.00 52 999.4
20260507114127 71 0 0.0 0.0 0.00 0.00 0.00 51 999.3
20260507114025 72 0 0.0 0.0 0.00 0.00 0.00 51 999.6
20260507113926 72 0 0.0 0.0 0.00 0.00 0.00 52 999.4
20260507113826 72 0 0.0 0.0 0.00 0.00 0.00 52 999.4
20260507113726 71 0 0.0 0.0 0.00 0.00 0.00 52 999.3
20260507113626 71 0 0.0 0.0 0.00 0.00 0.00 52 999.4
20260507113526 71 0 0.0 0.0 0.00 0.00 0.00 51 999.6
20260507113425 71 0 0.0 0.0 0.00 0.00 0.00 51 999.8
20260507113325 71 0 0.0 0.0 0.00 0.00 0.00 51 999.5
20260507113227 71 0 0.0 0.0 0.00 0.00 0.00 51 999.6
20260507113126 71 0 0.0 0.0 0.00 0.00 0.00 51 999.4
20260507113026 71 0 0.0 0.0 0.00 0.00 0.00 51 999.5
20260507112927 71 0 0.0 0.0 0.00 0.00 0.00 51 999.7
20260507112825 72 188 0.0 0.0 0.00 0.00 0.00 50 999.4
20260507112725 72 203 0.0 0.0 0.00 0.00 0.00 50 999.6
20260507112626 72 203 0.0 0.0 0.00 0.00 0.00 50 999.6
20260507112526 72 203 0.0 0.0 0.00 0.00 0.00 50 999.5
20260507112425 72 196 0.0 0.0 0.00 0.00 0.00 50 999.6
20260507112325 72 203 0.0 0.0 0.00 0.00 0.00 50 999.5
20260507112225 72 184 0.0 0.0 0.00 0.00 0.00 46 999.6
20260507112125 72 150 0.0 0.0 0.00 0.00 0.00 46 999.7
20260507112026 72 141 0.0 0.0 0.00 0.00 0.00 47 999.5
20260507111925 73 141 0.0 0.0 0.00 0.00 0.00 47 999.4
20260507111825 73 90 0.0 0.0 0.00 0.00 0.00 46 999.4
20260507111725 73 65 0.0 0.0 0.00 0.00 0.00 46 999.5
20260507111625 73 165 0.0 2.6 0.00 0.00 0.00 46 999.4
20260507111526 73 250 0.0 2.6 0.00 0.00 0.00 46 999.4
20260507111425 73 280 0.0 2.6 0.00 0.00 0.00 46 999.5
20260507111327 73 250 0.0 2.6 0.00 0.00 0.00 47 999.4
20260507111226 72 254 0.0 2.6 0.00 0.00 0.00 47 999.5
20260507111126 72 249 0.0 2.6 0.00 0.00 0.00 47 999.5
20260507111025 72 248 0.0 2.6 0.00 0.00 0.00 50 999.5
20260507110926 72 248 0.0 2.6 0.00 0.00 0.00 50 999.5
20260507110825 72 248 0.0 2.6 0.00 0.00 0.00 50 999.2
20260507110726 72 278 0.0 2.6 0.00 0.00 0.00 50 999.6
20260507110625 72 337 0.0 2.6 0.00 0.00 0.00 51 999.4
20260507110525 72 1 0.0 2.6 0.00 0.00 0.00 52 999.3
20260507110425 72 1 0.0 2.6 0.00 0.00 0.00 52 999.4
20260507110325 72 1 0.0 2.6 0.00 0.00 0.00 52 999.4
20260507110227 72 1 0.0 2.6 0.00 0.00 0.00 52 999.4
20260507110126 72 1 0.0 2.6 0.00 0.00 0.00 52 999.4
20260507110026 72 1 0.0 2.6 0.00 0.00 0.00 52 999.5
20260507105925 72 1 0.0 2.6 0.00 0.00 0.00 52 999.5
20260507105825 72 1 0.0 2.6 0.00 0.00 0.00 52 999.4
20260507105725 72 1 0.0 2.6 0.00 0.00 0.00 52 999.5
20260507105625 72 0 0.0 0.0 0.00 0.00 0.00 52 999.4
20260507105525 72 0 0.0 0.0 0.00 0.00 0.00 52 999.4
20260507105425 72 0 0.0 0.0 0.00 0.00 0.00 51 999.3
20260507105326 72 0 0.0 0.0 0.00 0.00 0.00 51 999.6
20260507105225 72 0 0.0 0.0 0.00 0.00 0.00 51 999.2
20260507105125 72 0 0.0 0.0 0.00 0.00 0.00 51 999.4
20260507105025 72 0 0.0 0.0 0.00 0.00 0.00 51 999.3
20260507104927 72 0 0.0 0.0 0.00 0.00 0.00 51 999.4
20260507104826 72 0 0.0 0.0 0.00 0.00 0.00 49 999.4
20260507104726 72 0 0.0 0.0 0.00 0.00 0.00 51 999.4
20260507104625 72 0 0.0 0.0 0.00 0.00 0.00 48 999.5
20260507104527 72 0 0.0 0.0 0.00 0.00 0.00 48 999.4
20260507104425 72 0 0.0 0.0 0.00 0.00 0.00 48 999.4
20260507104325 72 0 0.0 0.0 0.00 0.00 0.00 48 999.6
20260507104225 73 0 0.0 0.0 0.00 0.00 0.00 48 999.4
20260507104125 73 0 0.0 0.0 0.00 0.00 0.00 48 999.3
20260507104026 73 0 0.0 0.0 0.00 0.00 0.00 49 999.4
20260507103926 73 0 0.0 0.0 0.00 0.00 0.00 49 999.6
20260507103826 72 0 0.0 0.0 0.00 0.00 0.00 50 999.4
20260507103725 72 0 0.0 0.0 0.00 0.00 0.00 50 999.4
20260507103625 72 0 0.0 0.0 0.00 0.00 0.00 52 999.6
20260507103526 72 0 0.0 0.0 0.00 0.00 0.00 52 999.4
20260507103426 72 0 0.0 0.0 0.00 0.00 0.00 52 999.3
20260507103326 72 0 0.0 0.0 0.00 0.00 0.00 52 999.4
20260507103226 72 0 0.0 0.0 0.00 0.00 0.00 52 999.5
20260507103125 72 0 0.0 0.0 0.00 0.00 0.00 52 999.6
20260507103026 72 337 0.0 0.0 0.00 0.00 0.00 52 999.5
20260507102925 72 325 0.0 0.0 0.00 0.00 0.00 52 999.4
20260507102825 72 325 0.0 0.0 0.00 0.00 0.00 52 999.3
20260507102725 72 325 0.0 0.0 0.00 0.00 0.00 52 999.4
20260507102626 72 325 0.0 0.0 0.00 0.00 0.00 52 999.3
20260507102526 72 325 0.0 0.0 0.00 0.00 0.00 52 999.4
20260507102426 72 325 0.0 0.0 0.00 0.00 0.00 52 999.4
20260507102325 72 325 0.0 0.0 0.00 0.00 0.00 52 999.3
20260507102225 72 344 0.0 0.0 0.00 0.00 0.00 52 999.4
20260507102126 72 351 0.0 0.0 0.00 0.00 0.00 52 999.4
20260507102026 71 356 0.0 0.0 0.00 0.00 0.00 52 999.3
20260507101926 71 78 0.0 0.0 0.00 0.00 0.00 52 999.4
20260507101827 71 90 0.0 0.0 0.00 0.00 0.00 52 999.4
20260507101725 71 90 0.0 0.0 0.00 0.00 0.00 52 999.5
20260507101625 71 125 0.0 0.9 0.00 0.00 0.00 52 999.4
20260507101525 71 128 0.0 0.9 0.00 0.00 0.00 52 999.3
20260507101426 71 128 0.0 0.9 0.00 0.00 0.00 52 999.3
20260507101326 71 128 0.0 0.9 0.00 0.00 0.00 52 999.3
20260507101226 71 131 0.0 0.9 0.00 0.00 0.00 52 999.4
20260507101126 71 135 0.0 0.9 0.00 0.00 0.00 52 999.4
20260507101026 71 135 0.0 0.9 0.00 0.00 0.00 52 999.3
20260507100925 71 135 0.0 0.9 0.00 0.00 0.00 52 999.4
20260507100825 71 135 0.0 0.9 0.00 0.00 0.00 52 999.4
20260507100725 71 135 0.0 0.9 0.00 0.00 0.00 51 999.3
20260507100625 71 135 0.0 0.9 0.00 0.00 0.00 51 999.3
20260507100525 72 0 0.0 0.0 0.00 0.00 0.00 51 999.4
20260507100425 72 0 0.0 0.0 0.00 0.00 0.00 51 999.3
20260507100325 72 0 0.0 0.0 0.00 0.00 0.00 51 999.3
20260507100225 72 0 0.0 0.0 0.00 0.00 0.00 51 999.3
20260507100125 72 0 0.0 0.0 0.00 0.00 0.00 51 999.3
20260507100025 72 0 0.0 0.0 0.00 0.00 0.00 51 999.4
20260507095925 72 0 0.0 0.0 0.00 0.00 0.00 51 999.2
20260507095825 72 0 0.0 0.0 0.00 0.00 0.00 51 999.2
20260507095725 72 0 0.0 0.0 0.00 0.00 0.00 51 999.3
20260507095626 72 0 0.0 0.0 0.00 0.00 0.00 51 999.3
20260507095526 72 181 0.0 0.0 0.00 0.00 0.00 51 999.3
20260507095425 72 270 0.0 0.9 0.00 0.00 0.00 51 999.2
20260507095326 72 333 0.0 0.9 0.00 0.00 0.00 51 999.2
20260507095226 72 333 0.0 0.9 0.00 0.00 0.00 51 999.0
20260507095125 72 333 0.0 0.9 0.00 0.00 0.00 51 999.3
20260507095026 72 333 0.0 0.9 0.00 0.00 0.00 50 999.2
20260507094925 72 333 0.0 0.9 0.00 0.00 0.00 50 999.1
20260507094826 72 333 0.0 0.9 0.00 0.00 0.00 50 999.3
20260507094726 72 333 0.0 0.9 0.00 0.00 0.00 50 999.1
20260507094625 72 333 0.0 0.9 0.00 0.00 0.00 50 999.2
20260507094525 72 335 0.0 0.9 0.00 0.00 0.00 50 998.9
20260507094425 72 347 0.0 0.9 0.00 0.00 0.00 50 999.0
20260507094324 72 1 0.0 0.9 0.00 0.00 0.00 50 999.1
20260507094226 72 0 0.0 0.0 0.00 0.00 0.00 50 999.1
20260507094125 72 270 0.0 0.9 0.00 0.00 0.00 49 999.1
20260507094026 72 270 0.0 0.9 0.00 0.00 0.00 45 999.2
20260507093926 72 270 0.0 0.9 0.00 0.00 0.00 44 999.0
20260507093826 73 270 0.0 0.9 0.00 0.00 0.00 44 998.9
20260507093725 73 270 0.0 0.9 0.00 0.00 0.00 44 999.1
20260507093626 73 298 0.0 0.9 0.00 0.00 0.00 44 999.1
20260507093526 73 298 0.0 0.9 0.00 0.00 0.00 44 999.1
20260507093426 73 298 0.0 0.9 0.00 0.00 0.00 43 998.9
20260507093326 73 298 0.0 0.9 0.00 0.00 0.00 43 999.1
20260507093225 73 298 0.0 0.9 0.00 0.00 0.00 43 999.1
20260507093125 73 10 0.0 0.9 0.00 0.00 0.00 43 998.9
20260507093025 74 34 0.0 0.0 0.00 0.00 0.00 43 999.3
20260507092925 74 34 0.0 0.0 0.00 0.00 0.00 43 999.0
20260507092826 74 34 0.0 0.0 0.00 0.00 0.00 42 999.0
20260507092726 74 349 0.0 0.0 0.00 0.00 0.00 42 999.1
20260507092626 74 270 0.0 1.7 0.00 0.00 0.00 42 999.1
20260507092525 75 11 0.0 2.6 0.00 0.00 0.00 42 998.9
20260507092426 75 26 0.0 2.6 0.00 0.00 0.00 42 999.0
20260507092326 75 19 0.0 2.6 0.00 0.00 0.00 42 998.7
20260507092225 75 15 0.0 2.6 0.00 0.00 0.00 42 998.9
20260507092125 75 15 0.0 2.6 0.00 0.00 0.00 42 998.8
20260507092026 75 12 0.0 2.6 0.00 0.00 0.00 42 998.7
20260507091925 75 12 0.0 2.6 0.00 0.00 0.00 42 998.7
20260507091826 75 12 0.0 2.6 0.00 0.00 0.00 41 998.8
20260507091726 76 19 0.0 2.6 0.00 0.00 0.00 41 998.9
20260507091626 76 27 0.0 2.6 0.00 0.00 0.00 41 998.8
20260507091526 76 104 1.7 2.6 0.00 0.00 0.00 42 998.7
20260507091426 76 207 0.0 1.7 0.00 0.00 0.00 41 998.9
20260507091326 76 191 0.0 1.7 0.00 0.00 0.00 41 998.7
20260507091226 76 170 0.0 1.7 0.00 0.00 0.00 41 998.8
20260507091126 76 170 0.0 1.7 0.00 0.00 0.00 41 998.9
20260507091025 76 174 0.0 1.7 0.00 0.00 0.00 42 998.7
20260507090925 76 174 0.0 1.7 0.00 0.00 0.00 42 998.8
20260507090826 76 179 0.0 1.7 0.00 0.00 0.00 42 998.7
20260507090726 76 204 0.0 1.7 0.00 0.00 0.00 42 998.7
20260507090626 75 185 0.0 1.7 0.00 0.00 0.00 41 998.6
20260507090525 75 203 0.0 0.0 0.00 0.00 0.00 42 998.7
20260507090425 75 203 0.0 0.0 0.00 0.00 0.00 42 998.7
20260507090326 75 203 0.0 0.0 0.00 0.00 0.00 42 998.7
20260507090224 75 203 0.0 0.0 0.00 0.00 0.00 42 998.7
20260507090127 75 203 0.0 0.0 0.00 0.00 0.00 42 998.6
20260507090025 75 203 0.0 0.0 0.00 0.00 0.00 42 998.5
20260507085925 75 203 0.0 0.0 0.00 0.00 0.00 42 998.7
20260507085825 75 250 0.0 0.0 0.00 0.00 0.00 42 998.5
20260507085725 74 29 0.0 0.0 0.00 0.00 0.00 42 998.6
20260507085626 74 354 0.0 0.0 0.00 0.00 0.00 42 998.5
20260507085526 74 328 0.0 0.0 0.00 0.00 0.00 42 998.6
20260507085426 74 318 0.0 0.0 0.00 0.00 0.00 42 998.4
20260507085326 74 318 0.0 0.0 0.00 0.00 0.00 43 998.5
20260507085226 74 318 0.0 0.0 0.00 0.00 0.00 42 998.6
20260507085126 74 318 0.0 0.0 0.00 0.00 0.00 43 998.5
20260507085025 73 318 0.0 0.0 0.00 0.00 0.00 42 998.4
20260507084926 73 318 0.0 0.0 0.00 0.00 0.00 42 998.3
20260507084826 73 312 0.0 0.0 0.00 0.00 0.00 42 998.5
20260507084726 73 277 0.0 0.0 0.00 0.00 0.00 43 998.4
20260507084626 73 208 0.0 4.3 0.00 0.00 0.00 43 998.5
20260507084525 73 188 0.0 4.3 0.00 0.00 0.00 43 998.5
20260507084425 73 187 0.0 4.3 0.00 0.00 0.00 43 998.6
20260507084325 72 196 0.0 4.3 0.00 0.00 0.00 43 998.4
20260507084225 72 196 0.0 4.3 0.00 0.00 0.00 43 998.3
20260507084125 72 196 0.0 4.3 0.00 0.00 0.00 43 998.3
20260507084025 72 196 0.0 4.3 0.00 0.00 0.00 43 998.4
20260507083925 72 196 0.0 4.3 0.00 0.00 0.00 43 998.4
20260507083825 72 196 0.0 4.3 0.00 0.00 0.00 46 998.2
20260507083726 72 195 0.0 4.3 0.00 0.00 0.00 46 998.3
20260507083626 72 198 0.9 4.3 0.00 0.00 0.00 47 998.3
20260507083526 72 220 0.0 2.6 0.00 0.00 0.00 47 998.2
20260507083426 72 225 0.9 2.6 0.00 0.00 0.00 48 998.2
20260507083326 72 0 0.0 0.0 0.00 0.00 0.00 48 998.3
20260507083225 72 0 0.0 0.0 0.00 0.00 0.00 48 998.2
20260507083125 72 0 0.0 0.0 0.00 0.00 0.00 48 998.2
20260507083026 72 0 0.0 0.0 0.00 0.00 0.00 49 998.2
20260507082925 72 0 0.0 0.0 0.00 0.00 0.00 49 998.2
20260507082825 72 0 0.0 0.0 0.00 0.00 0.00 49 998.2
20260507082725 72 0 0.0 0.0 0.00 0.00 0.00 48 998.2
20260507082625 72 0 0.0 0.0 0.00 0.00 0.00 48 998.2
20260507082525 72 0 0.0 0.0 0.00 0.00 0.00 47 998.1
20260507082425 72 270 0.0 0.0 0.00 0.00 0.00 48 998.3
20260507082325 72 203 0.0 1.7 0.00 0.00 0.00 48 998.2
20260507082226 72 175 0.0 1.7 0.00 0.00 0.00 49 998.3
20260507082125 71 175 0.0 1.7 0.00 0.00 0.00 48 998.1
20260507082025 71 175 0.0 1.7 0.00 0.00 0.00 48 998.0
20260507081926 71 175 0.0 1.7 0.00 0.00 0.00 48 998.0
20260507081826 71 175 0.0 1.7 0.00 0.00 0.00 48 998.2
20260507081726 71 175 0.0 1.7 0.00 0.00 0.00 47 998.1
20260507081625 71 185 0.0 1.7 0.00 0.00 0.00 47 998.1
20260507081526 71 215 0.0 1.7 0.00 0.00 0.00 47 998.2
20260507081426 71 200 0.0 1.7 0.00 0.00 0.00 47 998.1
20260507081325 71 209 0.0 1.7 0.00 0.00 0.00 47 998.0
20260507081226 71 270 0.0 0.9 0.00 0.00 0.00 46 998.0
20260507081126 71 270 0.0 0.9 0.00 0.00 0.00 47 997.9
20260507081026 72 270 0.0 0.9 0.00 0.00 0.00 47 997.9
20260507080925 72 270 0.0 0.9 0.00 0.00 0.00 47 998.1
20260507080825 72 270 0.0 0.9 0.00 0.00 0.00 48 998.1
20260507080726 72 270 0.0 0.9 0.00 0.00 0.00 47 998.2
20260507080626 72 270 0.0 0.9 0.00 0.00 0.00 48 998.1
20260507080525 72 0 0.0 0.0 0.00 0.00 0.00 47 998.1
20260507080426 72 314 0.0 1.7 0.00 0.00 0.00 47 998.2
20260507080325 72 296 0.0 1.7 0.00 0.00 0.00 47 998.2
20260507080225 72 288 0.0 1.7 0.00 0.00 0.00 47 998.0
20260507080125 72 283 0.0 1.7 0.00 0.00 0.00 47 998.2
20260507080026 72 283 0.0 1.7 0.00 0.00 0.00 47 998.0
20260507075926 72 278 0.0 1.7 0.00 0.00 0.00 47 998.1
20260507075825 72 272 0.0 1.7 0.00 0.00 0.00 48 998.0
20260507075725 72 272 0.0 1.7 0.00 0.00 0.00 47 998.1
20260507075625 72 272 0.0 1.7 0.00 0.00 0.00 47 998.0
20260507075526 72 272 0.0 1.7 0.00 0.00 0.00 47 997.9
20260507075426 72 227 0.0 0.0 0.00 0.00 0.00 48 997.9
20260507075326 72 277 0.0 0.9 0.00 0.00 0.00 48 997.9
20260507075225 72 309 0.0 0.9 0.00 0.00 0.00 48 997.9
20260507075125 72 330 0.0 0.9 0.00 0.00 0.00 48 998.0
20260507075025 72 328 0.0 0.9 0.00 0.00 0.00 47 997.9
20260507074926 72 336 0.0 0.9 0.00 0.00 0.00 47 997.9
20260507074825 72 1 0.0 0.9 0.00 0.00 0.00 47 997.8
20260507074726 72 1 0.0 0.9 0.00 0.00 0.00 48 997.8
20260507074625 72 343 0.0 0.9 0.00 0.00 0.00 48 997.9
20260507074525 72 292 0.0 0.9 0.00 0.00 0.00 48 997.9
20260507074425 72 292 0.0 0.9 0.00 0.00 0.00 48 997.8
20260507074325 72 226 0.0 0.9 0.00 0.00 0.00 48 997.8
20260507074225 72 215 0.0 0.0 0.00 0.00 0.00 47 997.9
20260507074125 72 215 0.0 0.0 0.00 0.00 0.00 47 997.9
20260507074025 72 215 0.0 0.0 0.00 0.00 0.00 46 997.9
20260507073925 72 215 0.0 0.0 0.00 0.00 0.00 46 998.1
20260507073825 72 215 0.0 0.0 0.00 0.00 0.00 47 997.9
20260507073726 72 215 0.0 0.0 0.00 0.00 0.00 44 998.0
20260507073625 72 212 0.0 0.0 0.00 0.00 0.00 43 997.8
20260507073527 72 203 0.0 0.0 0.00 0.00 0.00 43 997.8
20260507073427 72 0 0.0 0.0 0.00 0.00 0.00 43 998.1
20260507073325 73 0 0.0 0.0 0.00 0.00 0.00 43 998.0
20260507073225 73 0 0.0 0.0 0.00 0.00 0.00 43 998.1
20260507073125 73 0 0.0 0.0 0.00 0.00 0.00 43 997.9
20260507073026 73 0 0.0 0.0 0.00 0.00 0.00 43 997.9
20260507072925 73 0 0.0 0.0 0.00 0.00 0.00 44 997.8
20260507072825 73 0 0.0 0.0 0.00 0.00 0.00 44 998.1
20260507072725 73 0 0.0 0.0 0.00 0.00 0.00 44 997.9
20260507072626 73 0 0.0 0.0 0.00 0.00 0.00 44 997.7
20260507072526 73 0 0.0 0.0 0.00 0.00 0.00 43 997.9
20260507072426 73 0 0.0 0.0 0.00 0.00 0.00 43 997.8
20260507072326 73 0 0.0 0.0 0.00 0.00 0.00 43 997.8
20260507072226 73 0 0.0 0.0 0.00 0.00 0.00 43 997.9
20260507072125 73 0 0.0 0.0 0.00 0.00 0.00 43 997.9
20260507072025 73 0 0.0 0.0 0.00 0.00 0.00 43 997.9
20260507071925 73 0 0.0 0.0 0.00 0.00 0.00 43 997.6
20260507071826 73 0 0.0 0.0 0.00 0.00 0.00 43 997.8
20260507071725 74 135 0.0 0.0 0.00 0.00 0.00 43 997.7
20260507071625 74 135 0.0 0.0 0.00 0.00 0.00 44 997.8
20260507071525 74 135 0.0 0.0 0.00 0.00 0.00 44 997.8
20260507071425 73 135 0.0 0.0 0.00 0.00 0.00 43 997.8
20260507071325 73 135 0.0 0.0 0.00 0.00 0.00 43 997.7
20260507071225 73 135 0.0 0.0 0.00 0.00 0.00 43 997.7
20260507071125 73 135 0.0 0.0 0.00 0.00 0.00 43 997.9
20260507071026 74 135 0.0 0.0 0.00 0.00 0.00 43 997.8
20260507070926 74 135 0.0 0.0 0.00 0.00 0.00 43 997.8
20260507070826 74 135 0.0 0.0 0.00 0.00 0.00 43 997.7
20260507070726 74 135 0.0 0.0 0.00 0.00 0.00 44 997.8
20260507070626 73 0 0.0 0.0 0.00 0.00 0.00 45 997.6
20260507070525 73 0 0.0 0.0 0.00 0.00 0.00 45 997.8
20260507070425 73 0 0.0 0.0 0.00 0.00 0.00 45 997.7
20260507070325 73 0 0.0 0.0 0.00 0.00 0.00 45 997.5
20260507070226 72 0 0.0 0.0 0.00 0.00 0.00 50 997.9
20260507070125 72 0 0.0 0.0 0.00 0.00 0.00 50 997.6
20260507070025 72 0 0.0 0.0 0.00 0.00 0.00 50 997.7
20260507065925 72 0 0.0 0.0 0.00 0.00 0.00 50 997.7
20260507065825 72 0 0.0 0.0 0.00 0.00 0.00 50 997.8
20260507065725 72 0 0.0 0.0 0.00 0.00 0.00 50 997.8
20260507065625 72 0 0.0 0.0 0.00 0.00 0.00 50 997.6
20260507065525 71 0 0.0 0.0 0.00 0.00 0.00 50 997.8
20260507065426 71 0 0.0 0.0 0.00 0.00 0.00 50 997.8
20260507065326 71 0 0.0 0.0 0.00 0.00 0.00 50 997.6
20260507065226 71 0 0.0 0.0 0.00 0.00 0.00 50 997.6
20260507065125 71 0 0.0 0.0 0.00 0.00 0.00 50 997.8
20260507065025 70 0 0.0 0.0 0.00 0.00 0.00 50 997.6
20260507064925 70 0 0.0 0.0 0.00 0.00 0.00 50 997.7
20260507064825 70 0 0.0 0.0 0.00 0.00 0.00 50 997.7
20260507064726 70 0 0.0 0.0 0.00 0.00 0.00 50 997.5
20260507064627 70 0 0.0 0.0 0.00 0.00 0.00 50 997.5
20260507064525 70 0 0.0 0.0 0.00 0.00 0.00 51 997.6
20260507064426 70 0 0.0 0.0 0.00 0.00 0.00 50 997.6
20260507064326 70 0 0.0 0.0 0.00 0.00 0.00 50 997.5
20260507064226 70 0 0.0 0.0 0.00 0.00 0.00 50 997.6
20260507064126 70 0 0.0 0.0 0.00 0.00 0.00 50 997.4
20260507064025 70 0 0.0 0.0 0.00 0.00 0.00 50 997.5
20260507063925 70 0 0.0 0.0 0.00 0.00 0.00 50 997.6
20260507063826 70 0 0.0 0.0 0.00 0.00 0.00 50 997.4
20260507063727 70 0 0.0 0.0 0.00 0.00 0.00 50 997.5
20260507063626 70 0 0.0 0.0 0.00 0.00 0.00 50 997.6
20260507063526 70 0 0.0 0.0 0.00 0.00 0.00 50 997.5
20260507063426 70 0 0.0 0.0 0.00 0.00 0.00 50 997.6
20260507063326 70 0 0.0 0.0 0.00 0.00 0.00 50 997.4
20260507063226 70 0 0.0 0.0 0.00 0.00 0.00 50 997.6
20260507063125 70 0 0.0 0.0 0.00 0.00 0.00 50 997.5
20260507063026 70 0 0.0 0.0 0.00 0.00 0.00 50 997.4
20260507062926 70 0 0.0 0.0 0.00 0.00 0.00 50 997.6
20260507062825 70 0 0.0 0.0 0.00 0.00 0.00 50 997.5
20260507062726 70 0 0.0 0.0 0.00 0.00 0.00 50 997.5
20260507062626 70 0 0.0 0.0 0.00 0.00 0.00 50 997.6
20260507062526 70 0 0.0 0.0 0.00 0.00 0.00 50 997.5
20260507062425 70 0 0.0 0.0 0.00 0.00 0.00 50 997.5
20260507062325 70 0 0.0 0.0 0.00 0.00 0.00 51 997.7
20260507062225 70 0 0.0 0.0 0.00 0.00 0.00 51 997.4
20260507062125 70 0 0.0 0.0 0.00 0.00 0.00 51 997.5
20260507062026 70 0 0.0 0.0 0.00 0.00 0.00 51 997.5
20260507061926 70 0 0.0 0.0 0.00 0.00 0.00 51 997.7
20260507061825 70 0 0.0 0.0 0.00 0.00 0.00 52 997.4
20260507061725 69 0 0.0 0.0 0.00 0.00 0.00 52 997.6
20260507061625 69 0 0.0 0.0 0.00 0.00 0.00 52 997.4
20260507061525 69 0 0.0 0.0 0.00 0.00 0.00 52 997.3
20260507061426 69 0 0.0 0.0 0.00 0.00 0.00 52 997.4
20260507061326 69 0 0.0 0.0 0.00 0.00 0.00 53 997.5
20260507061227 69 0 0.0 0.0 0.00 0.00 0.00 53 997.5
20260507061127 69 0 0.0 0.0 0.00 0.00 0.00 53 997.4
20260507061025 69 0 0.0 0.0 0.00 0.00 0.00 53 997.2
20260507060925 69 0 0.0 0.0 0.00 0.00 0.00 53 997.4
20260507060826 68 0 0.0 0.0 0.00 0.00 0.00 53 997.4
20260507060725 68 0 0.0 0.0 0.00 0.00 0.00 53 997.3
20260507060625 68 0 0.0 0.0 0.00 0.00 0.00 53 997.3
20260507060525 68 0 0.0 0.0 0.00 0.00 0.00 52 997.4
20260507060426 68 0 0.0 0.0 0.00 0.00 0.00 52 997.3
20260507060325 68 0 0.0 0.0 0.00 0.00 0.00 52 997.2
20260507060226 67 0 0.0 0.0 0.00 0.00 0.00 53 997.4
20260507060126 67 0 0.0 0.0 0.00 0.00 0.00 53 997.3
20260507060026 67 0 0.0 0.0 0.00 0.00 0.00 53 997.2
20260507055925 67 0 0.0 0.0 0.00 0.00 0.00 54 997.1
20260507055827 67 0 0.0 0.0 0.00 0.00 0.00 53 997.2
20260507055725 67 0 0.0 0.0 0.00 0.00 0.00 53 997.1
20260507055625 67 0 0.0 0.0 0.00 0.00 0.00 53 997.3
20260507055525 67 0 0.0 0.0 0.00 0.00 0.00 53 997.2
20260507055426 67 0 0.0 0.0 0.00 0.00 0.00 53 997.1
20260507055327 67 0 0.0 0.0 0.00 0.00 0.00 53 997.0
20260507055225 67 0 0.0 0.0 0.00 0.00 0.00 53 997.2
20260507055125 67 0 0.0 0.0 0.00 0.00 0.00 53 997.1
20260507055026 67 0 0.0 0.0 0.00 0.00 0.00 53 997.0
20260507054926 67 0 0.0 0.0 0.00 0.00 0.00 53 996.9
20260507054825 67 0 0.0 0.0 0.00 0.00 0.00 53 997.2
20260507054725 67 0 0.0 0.0 0.00 0.00 0.00 53 996.9
20260507054625 67 0 0.0 0.0 0.00 0.00 0.00 53 997.2
20260507054526 67 0 0.0 0.0 0.00 0.00 0.00 53 997.1
20260507054425 67 0 0.0 0.0 0.00 0.00 0.00 53 997.1
20260507054325 67 0 0.0 0.0 0.00 0.00 0.00 53 997.2
20260507054225 67 0 0.0 0.0 0.00 0.00 0.00 53 997.2
20260507054126 67 0 0.0 0.0 0.00 0.00 0.00 53 997.1
20260507054025 67 0 0.0 0.0 0.00 0.00 0.00 53 997.1
20260507053925 67 0 0.0 0.0 0.00 0.00 0.00 53 997.0
20260507053825 67 0 0.0 0.0 0.00 0.00 0.00 53 996.9
20260507053727 67 0 0.0 0.0 0.00 0.00 0.00 53 997.0
20260507053626 67 0 0.0 0.0 0.00 0.00 0.00 53 997.1
20260507053525 67 0 0.0 0.0 0.00 0.00 0.00 53 997.1
20260507053426 66 0 0.0 0.0 0.00 0.00 0.00 53 997.1
20260507053325 66 0 0.0 0.0 0.00 0.00 0.00 53 997.0
20260507053225 66 0 0.0 0.0 0.00 0.00 0.00 53 997.0
20260507053125 66 0 0.0 0.0 0.00 0.00 0.00 53 996.9
20260507053025 66 0 0.0 0.0 0.00 0.00 0.00 53 997.1
20260507052925 66 0 0.0 0.0 0.00 0.00 0.00 53 997.0
20260507052826 66 0 0.0 0.0 0.00 0.00 0.00 53 996.9
20260507052726 66 0 0.0 0.0 0.00 0.00 0.00 53 997.1
20260507052625 66 0 0.0 0.0 0.00 0.00 0.00 53 997.0
20260507052525 66 0 0.0 0.0 0.00 0.00 0.00 53 997.2
20260507052425 66 0 0.0 0.0 0.00 0.00 0.00 53 997.1
20260507052325 66 0 0.0 0.0 0.00 0.00 0.00 53 997.1
20260507052225 66 0 0.0 0.0 0.00 0.00 0.00 53 997.0
20260507052126 66 0 0.0 0.0 0.00 0.00 0.00 53 997.0
20260507052026 66 0 0.0 0.0 0.00 0.00 0.00 53 996.9
20260507051925 66 0 0.0 0.0 0.00 0.00 0.00 53 996.9
20260507051825 66 0 0.0 0.0 0.00 0.00 0.00 54 996.9
20260507051726 66 0 0.0 0.0 0.00 0.00 0.00 54 996.8
20260507051625 66 0 0.0 0.0 0.00 0.00 0.00 54 996.8
20260507051525 66 0 0.0 0.0 0.00 0.00 0.00 53 996.9
20260507051426 65 0 0.0 0.0 0.00 0.00 0.00 53 996.7
20260507051327 65 0 0.0 0.0 0.00 0.00 0.00 53 996.8
20260507051225 65 0 0.0 0.0 0.00 0.00 0.00 53 996.7
20260507051126 65 0 0.0 0.0 0.00 0.00 0.00 53 996.9
20260507051026 65 0 0.0 0.0 0.00 0.00 0.00 53 996.7
20260507050925 65 0 0.0 0.0 0.00 0.00 0.00 53 996.7
20260507050826 65 0 0.0 0.0 0.00 0.00 0.00 53 996.7
20260507050726 65 0 0.0 0.0 0.00 0.00 0.00 53 996.7
20260507050626 65 0 0.0 0.0 0.00 0.00 0.00 53 996.8
20260507050526 65 0 0.0 0.0 0.00 0.00 0.00 53 996.7
20260507050425 65 0 0.0 0.0 0.00 0.00 0.00 53 996.7
20260507050326 65 0 0.0 0.0 0.00 0.00 0.00 53 996.6
20260507050226 65 0 0.0 0.0 0.00 0.00 0.00 53 996.8
20260507050125 65 0 0.0 0.0 0.00 0.00 0.00 53 996.5
20260507050025 65 0 0.0 0.0 0.00 0.00 0.00 53 996.7
20260507045926 65 0 0.0 0.0 0.00 0.00 0.00 53 996.7
20260507045826 65 0 0.0 0.0 0.00 0.00 0.00 53 996.7
20260507045725 65 0 0.0 0.0 0.00 0.00 0.00 53 996.6
20260507045625 65 0 0.0 0.0 0.00 0.00 0.00 53 996.6
20260507045526 65 0 0.0 0.0 0.00 0.00 0.00 53 996.8
20260507045427 65 0 0.0 0.0 0.00 0.00 0.00 53 996.6
20260507045325 65 0 0.0 0.0 0.00 0.00 0.00 53 996.6
20260507045225 65 0 0.0 0.0 0.00 0.00 0.00 53 996.9
20260507045125 65 0 0.0 0.0 0.00 0.00 0.00 53 996.8
20260507045025 65 0 0.0 0.0 0.00 0.00 0.00 53 996.7
20260507044925 65 0 0.0 0.0 0.00 0.00 0.00 53 996.5
20260507044825 65 0 0.0 0.0 0.00 0.00 0.00 53 996.7
20260507044725 65 0 0.0 0.0 0.00 0.00 0.00 53 996.5
20260507044626 65 0 0.0 0.0 0.00 0.00 0.00 53 996.7
20260507044526 65 0 0.0 0.0 0.00 0.00 0.00 53 996.7
20260507044426 65 0 0.0 0.0 0.00 0.00 0.00 53 996.7
20260507044325 65 0 0.0 0.0 0.00 0.00 0.00 53 996.6
20260507044225 65 0 0.0 0.0 0.00 0.00 0.00 53 996.7
20260507044125 65 0 0.0 0.0 0.00 0.00 0.00 53 996.5
20260507044026 65 0 0.0 0.0 0.00 0.00 0.00 53 996.7
20260507043925 65 0 0.0 0.0 0.00 0.00 0.00 53 996.6
20260507043826 65 0 0.0 0.0 0.00 0.00 0.00 52 996.5
20260507043726 65 0 0.0 0.0 0.00 0.00 0.00 53 996.7
20260507043626 65 0 0.0 0.0 0.00 0.00 0.00 53 996.5
20260507043525 65 0 0.0 0.0 0.00 0.00 0.00 53 996.3
20260507043427 65 0 0.0 0.0 0.00 0.00 0.00 53 996.4
20260507043325 65 0 0.0 0.0 0.00 0.00 0.00 53 996.5
20260507043227 65 0 0.0 0.0 0.00 0.00 0.00 53 996.5
20260507043125 65 0 0.0 0.0 0.00 0.00 0.00 53 996.6
20260507043025 65 0 0.0 0.0 0.00 0.00 0.00 52 996.5
20260507042925 65 0 0.0 0.0 0.00 0.00 0.00 52 996.6
20260507042825 65 0 0.0 0.0 0.00 0.00 0.00 52 996.6
20260507042725 65 0 0.0 0.0 0.00 0.00 0.00 52 996.6
20260507042626 65 0 0.0 0.0 0.00 0.00 0.00 52 996.5
20260507042526 65 0 0.0 0.0 0.00 0.00 0.00 52 996.4
20260507042426 65 0 0.0 0.0 0.00 0.00 0.00 52 996.6
20260507042326 65 0 0.0 0.0 0.00 0.00 0.00 52 996.6
20260507042227 65 0 0.0 0.0 0.00 0.00 0.00 52 996.6
20260507042125 65 0 0.0 0.0 0.00 0.00 0.00 52 996.5
20260507042026 65 0 0.0 0.0 0.00 0.00 0.00 52 996.7
20260507041926 65 0 0.0 0.0 0.00 0.00 0.00 52 996.6
20260507041826 65 0 0.0 0.0 0.00 0.00 0.00 52 996.6
20260507041726 65 0 0.0 0.0 0.00 0.00 0.00 52 996.3
20260507041626 65 0 0.0 0.0 0.00 0.00 0.00 52 996.5
20260507041526 65 0 0.0 0.0 0.00 0.00 0.00 52 996.5
20260507041426 65 0 0.0 0.0 0.00 0.00 0.00 52 996.4
20260507041325 65 0 0.0 0.0 0.00 0.00 0.00 52 996.4
20260507041225 65 0 0.0 0.0 0.00 0.00 0.00 52 996.5
20260507041125 65 0 0.0 0.0 0.00 0.00 0.00 52 996.4
20260507041025 65 0 0.0 0.0 0.00 0.00 0.00 52 996.5
20260507040926 65 0 0.0 0.0 0.00 0.00 0.00 52 996.3
20260507040826 65 0 0.0 0.0 0.00 0.00 0.00 52 996.5
20260507040726 65 0 0.0 0.0 0.00 0.00 0.00 52 996.5
20260507040625 65 0 0.0 0.0 0.00 0.00 0.00 52 996.5
20260507040526 65 0 0.0 0.0 0.00 0.00 0.00 52 996.4
20260507040426 65 135 0.0 4.3 0.00 0.00 0.00 52 996.5
20260507040326 65 135 0.0 4.3 0.00 0.00 0.00 52 996.4
20260507040226 65 135 0.0 4.3 0.00 0.00 0.00 52 996.4
20260507040126 65 135 0.0 4.3 0.00 0.00 0.00 52 996.4
20260507040025 65 135 0.0 4.3 0.00 0.00 0.00 52 996.4
20260507035926 65 135 0.0 4.3 0.00 0.00 0.00 52 996.3
20260507035826 65 135 0.0 4.3 0.00 0.00 0.00 52 996.3
20260507035726 65 135 0.0 4.3 0.00 0.00 0.00 52 996.3
20260507035626 65 135 0.0 4.3 0.00 0.00 0.00 52 996.3
20260507035525 65 135 0.0 4.3 0.00 0.00 0.00 52 996.1
20260507035426 65 141 0.9 4.3 0.00 0.00 0.00 52 996.4
20260507035326 65 162 0.0 0.9 0.00 0.00 0.00 52 996.2
20260507035226 65 162 0.0 0.9 0.00 0.00 0.00 52 996.3
20260507035126 64 162 0.0 0.9 0.00 0.00 0.00 52 996.2
20260507035026 64 162 0.0 0.9 0.00 0.00 0.00 52 996.0
20260507034925 65 162 0.0 0.9 0.00 0.00 0.00 52 996.0
20260507034826 65 157 0.0 3.5 0.00 0.00 0.00 52 996.2
20260507034726 65 143 0.0 4.3 0.00 0.00 0.00 52 996.2
20260507034626 64 132 0.0 4.3 0.00 0.00 0.00 52 996.3
20260507034526 64 124 0.0 4.3 0.00 0.00 0.00 52 996.2
20260507034426 64 122 0.0 4.3 0.00 0.00 0.00 52 996.2
20260507034326 64 121 0.0 4.3 0.00 0.00 0.00 52 996.2
20260507034226 64 121 0.0 4.3 0.00 0.00 0.00 52 996.2
20260507034127 64 121 0.0 4.3 0.00 0.00 0.00 52 996.2
20260507034025 64 121 0.0 4.3 0.00 0.00 0.00 52 995.9
20260507033927 64 121 0.0 4.3 0.00 0.00 0.00 52 996.1
20260507033825 64 119 0.9 4.3 0.00 0.00 0.00 52 996.0
20260507033725 64 109 0.9 4.3 0.00 0.00 0.00 52 996.2
20260507033626 64 90 0.9 4.3 0.00 0.00 0.00 53 996.3
20260507033526 64 0 0.0 0.0 0.00 0.00 0.00 53 996.3
20260507033425 64 0 0.0 0.0 0.00 0.00 0.00 53 996.3
20260507033326 64 0 0.0 0.0 0.00 0.00 0.00 53 996.4
20260507033226 64 0 0.0 0.0 0.00 0.00 0.00 53 996.5
20260507033125 64 0 0.0 0.0 0.00 0.00 0.00 53 996.3
20260507033025 64 0 0.0 0.0 0.00 0.00 0.00 53 996.4
20260507032926 64 0 0.0 0.0 0.00 0.00 0.00 53 996.5
20260507032826 64 0 0.0 0.0 0.00 0.00 0.00 53 996.4
20260507032727 64 0 0.0 0.0 0.00 0.00 0.00 53 996.3
20260507032625 63 0 0.0 0.0 0.00 0.00 0.00 58 996.4
20260507032525 63 0 0.0 0.0 0.00 0.00 0.00 58 996.3
20260507032426 63 0 0.0 0.0 0.00 0.00 0.00 58 996.4
20260507032326 63 0 0.0 0.0 0.00 0.00 0.00 58 996.4
20260507032225 63 0 0.0 0.0 0.00 0.00 0.00 58 996.6
20260507032125 63 0 0.0 0.0 0.00 0.00 0.00 58 996.6
20260507032025 63 0 0.0 0.0 0.00 0.00 0.00 58 996.5
20260507031926 63 0 0.0 0.0 0.00 0.00 0.00 58 996.4
20260507031827 63 0 0.0 0.0 0.00 0.00 0.00 58 996.4
20260507031726 63 0 0.0 0.0 0.00 0.00 0.00 58 996.6
20260507031625 63 0 0.0 0.0 0.00 0.00 0.00 57 996.5
20260507031525 64 0 0.0 0.0 0.00 0.00 0.00 53 996.6
20260507031426 64 0 0.0 0.0 0.00 0.00 0.00 53 996.4
20260507031327 64 0 0.0 0.0 0.00 0.00 0.00 53 996.7
20260507031225 64 0 0.0 0.0 0.00 0.00 0.00 53 996.4
20260507031126 64 0 0.0 0.0 0.00 0.00 0.00 53 996.4
20260507031026 64 0 0.0 0.0 0.00 0.00 0.00 53 996.4
20260507030927 64 0 0.0 0.0 0.00 0.00 0.00 53 996.4
20260507030826 64 0 0.0 0.0 0.00 0.00 0.00 53 996.4
20260507030726 64 0 0.0 0.0 0.00 0.00 0.00 52 996.5
20260507030625 64 0 0.0 0.0 0.00 0.00 0.00 52 996.5
20260507030526 64 0 0.0 0.0 0.00 0.00 0.00 52 996.5
20260507030426 64 0 0.0 0.0 0.00 0.00 0.00 53 996.3
20260507030327 64 0 0.0 0.0 0.00 0.00 0.00 53 996.3
20260507030225 64 0 0.0 0.0 0.00 0.00 0.00 53 996.3
20260507030127 64 0 0.0 0.0 0.00 0.00 0.00 53 996.5
20260507030026 64 0 0.0 0.0 0.00 0.00 0.00 53 996.5
20260507025925 64 0 0.0 0.0 0.00 0.00 0.00 53 996.3
20260507025825 64 0 0.0 0.0 0.00 0.00 0.00 53 996.3
20260507025726 64 0 0.0 0.0 0.00 0.00 0.00 53 996.1
20260507025626 64 135 0.0 0.0 0.00 0.00 0.00 53 996.1
20260507025525 64 135 0.0 0.0 0.00 0.00 0.00 53 996.3
20260507025425 64 135 0.0 0.0 0.00 0.00 0.00 54 996.3
20260507025326 64 135 0.0 0.0 0.00 0.00 0.00 54 996.2
20260507025226 64 135 0.0 0.0 0.00 0.00 0.00 54 996.1
20260507025125 64 135 0.0 0.0 0.00 0.00 0.00 54 996.2
20260507025025 64 135 0.0 0.0 0.00 0.00 0.00 55 996.2
20260507024925 64 135 0.0 0.0 0.00 0.00 0.00 55 996.0
20260507024825 63 135 0.0 0.0 0.00 0.00 0.00 60 996.1
20260507024726 63 135 0.0 0.0 0.00 0.00 0.00 60 996.1
20260507024626 63 0 0.0 0.0 0.00 0.00 0.00 60 996.2
20260507024525 63 0 0.0 0.0 0.00 0.00 0.00 60 996.0
20260507024426 63 0 0.0 0.0 0.00 0.00 0.00 61 996.0
20260507024326 63 0 0.0 0.0 0.00 0.00 0.00 61 996.0
20260507024226 62 0 0.0 0.0 0.00 0.00 0.00 62 996.0
20260507024126 62 0 0.0 0.0 0.00 0.00 0.00 62 996.1
20260507024025 62 0 0.0 0.0 0.00 0.00 0.00 62 996.3
20260507023926 62 0 0.0 0.0 0.00 0.00 0.00 62 996.1
20260507023826 62 0 0.0 0.0 0.00 0.00 0.00 63 996.0
20260507023725 62 0 0.0 0.0 0.00 0.00 0.00 63 996.0
20260507023625 61 0 0.0 0.0 0.00 0.00 0.00 64 995.9
20260507023525 61 0 0.0 0.0 0.00 0.00 0.00 64 996.0
20260507023425 61 0 0.0 0.0 0.00 0.00 0.00 65 995.9
20260507023325 61 0 0.0 0.0 0.00 0.00 0.00 65 996.0
20260507023226 61 0 0.0 0.0 0.00 0.00 0.00 65 996.2
20260507023125 60 0 0.0 0.0 0.00 0.00 0.00 65 995.9
20260507023025 60 0 0.0 0.0 0.00 0.00 0.00 66 996.2
20260507022927 60 0 0.0 0.0 0.00 0.00 0.00 66 996.0
20260507022826 60 0 0.0 0.0 0.00 0.00 0.00 66 996.1
20260507022725 60 0 0.0 0.0 0.00 0.00 0.00 66 996.1
20260507022626 60 0 0.0 0.0 0.00 0.00 0.00 66 996.2
20260507022526 60 0 0.0 0.0 0.00 0.00 0.00 66 996.1
20260507022425 60 0 0.0 0.0 0.00 0.00 0.00 66 995.9
20260507022326 60 0 0.0 0.0 0.00 0.00 0.00 66 996.1
20260507022226 60 0 0.0 0.0 0.00 0.00 0.00 67 996.2
20260507022125 60 0 0.0 0.0 0.00 0.00 0.00 67 996.2
20260507022025 60 0 0.0 0.0 0.00 0.00 0.00 67 995.9
20260507021925 60 0 0.0 0.0 0.00 0.00 0.00 67 996.1
20260507021825 60 0 0.0 0.0 0.00 0.00 0.00 67 996.0
20260507021726 59 0 0.0 0.0 0.00 0.00 0.00 67 996.1
20260507021626 59 0 0.0 0.0 0.00 0.00 0.00 67 996.1
20260507021526 59 0 0.0 0.0 0.00 0.00 0.00 67 996.0
20260507021425 59 0 0.0 0.0 0.00 0.00 0.00 67 996.0
20260507021326 60 0 0.0 0.0 0.00 0.00 0.00 67 995.9
20260507021226 60 0 0.0 0.0 0.00 0.00 0.00 67 996.0
20260507021125 60 0 0.0 0.0 0.00 0.00 0.00 66 996.1
20260507021025 60 0 0.0 0.0 0.00 0.00 0.00 66 996.0
20260507020925 60 0 0.0 0.0 0.00 0.00 0.00 66 995.9
20260507020825 60 0 0.0 0.0 0.00 0.00 0.00 66 996.0
20260507020726 60 0 0.0 0.0 0.00 0.00 0.00 66 996.0
20260507020627 60 0 0.0 0.0 0.00 0.00 0.00 65 996.1
20260507020525 60 0 0.0 0.0 0.00 0.00 0.00 65 996.0
20260507020425 60 0 0.0 0.0 0.00 0.00 0.00 65 996.0
20260507020325 60 0 0.0 0.0 0.00 0.00 0.00 65 996.0
20260507020225 60 0 0.0 0.0 0.00 0.00 0.00 65 995.9
20260507020126 60 0 0.0 0.0 0.00 0.00 0.00 65 996.0
20260507020026 60 0 0.0 0.0 0.00 0.00 0.00 65 996.2
20260507015925 60 0 0.0 0.0 0.00 0.00 0.00 65 996.1
20260507015825 61 0 0.0 0.0 0.00 0.00 0.00 65 996.2
20260507015725 61 0 0.0 0.0 0.00 0.00 0.00 65 996.2
20260507015625 61 0 0.0 0.0 0.00 0.00 0.00 65 996.1
20260507015526 61 0 0.0 0.0 0.00 0.00 0.00 65 996.1
20260507015426 61 0 0.0 0.0 0.00 0.00 0.00 65 996.1
20260507015327 60 0 0.0 0.0 0.00 0.00 0.00 65 996.3
20260507015225 60 0 0.0 0.0 0.00 0.00 0.00 65 996.1
20260507015126 60 0 0.0 0.0 0.00 0.00 0.00 65 996.2
20260507015027 60 0 0.0 0.0 0.00 0.00 0.00 65 996.3
20260507014926 60 0 0.0 0.0 0.00 0.00 0.00 65 996.2
20260507014827 60 0 0.0 0.0 0.00 0.00 0.00 65 996.3
20260507014726 60 0 0.0 0.0 0.00 0.00 0.00 65 996.2
20260507014627 60 0 0.0 0.0 0.00 0.00 0.00 65 996.1
20260507014525 60 0 0.0 0.0 0.00 0.00 0.00 65 996.4
20260507014425 60 0 0.0 0.0 0.00 0.00 0.00 64 996.2
20260507014325 60 0 0.0 0.0 0.00 0.00 0.00 64 996.2
20260507014225 60 0 0.0 0.0 0.00 0.00 0.00 64 996.2
20260507014126 60 0 0.0 0.0 0.00 0.00 0.00 64 996.1
20260507014026 60 0 0.0 0.0 0.00 0.00 0.00 64 996.1
20260507013926 60 0 0.0 0.0 0.00 0.00 0.00 64 996.1
20260507013827 60 0 0.0 0.0 0.00 0.00 0.00 64 996.1
20260507013726 60 0 0.0 0.0 0.00 0.00 0.00 64 996.1
20260507013625 60 0 0.0 0.0 0.00 0.00 0.00 64 996.3
20260507013525 60 0 0.0 0.0 0.00 0.00 0.00 64 996.3
20260507013425 60 0 0.0 0.0 0.00 0.00 0.00 64 996.3
20260507013325 60 0 0.0 0.0 0.00 0.00 0.00 64 996.1